ECMWFNIL_prec_precacc_003.txt.gz
Total_Precipitation_Accumulation
0.00 0.00 0.00 0.00 0.00 0.00 0.00 0.00 0.00 0.00 0.00 0.00 0.00 0.00 0.00 0.00 0.00 0.00 0.00 0.00 0.00 0.00 0.00 0.00 0.00 0.00 0.00 0.00 0.00 0.00 0.00 0.00 0.00 0.00 0.00 0.00 0.01 0.00 0.00 0.00 0.00 0.00
0.00 0.00 0.00 0.00 0.00 0.00 0.00 0.00 0.00 0.00 0.00 0.00 0.00 0.00 0.00 0.00 0.00 0.00 0.00 0.00 0.00 0.00 0.00 0.00 0.00 0.00 0.00 0.00 0.00 0.00 0.00 0.00 0.00 0.00 0.00 0.00 0.00 0.01 0.00 0.00 0.00 0.00
0.00 0.00 0.00 0.00 0.00 0.00 0.00 0.00 0.00 0.00 0.00 0.00 0.00 0.00 0.00 0.00 0.00 0.00 0.00 0.00 0.00 0.00 0.00 0.00 0.00 0.00 0.00 0.00 0.00 0.00 0.00 0.00 0.00 0.00 0.00 0.00 0.00 0.00 0.00 0.01 0.01 0.01
0.00 0.00 0.00 0.00 0.00 0.00 0.00 0.00 0.00 0.00 0.00 0.00 0.00 0.00 0.00 0.00 0.00 0.00 0.00 0.00 0.00 0.00 0.00 0.00 0.00 0.00 0.00 0.00 0.00 0.00 0.00 0.00 0.00 0.00 0.00 0.00 0.00 0.00 0.00 0.01 0.00 0.00
0.00 0.00 0.00 0.00 0.00 0.00 0.00 0.00 0.00 0.00 0.00 0.00 0.00 0.00 0.00 0.00 0.00 0.00 0.00 0.00 0.00 0.00 0.00 0.00 0.00 0.00 0.00 0.00 0.00 0.00 0.00 0.00 0.00 0.00 0.00 0.00 0.00 0.00 0.00 0.00 0.00 0.00
0.00 0.00 0.00 0.00 0.00 0.00 0.00 0.00 0.00 0.00 0.00 0.00 0.00 0.00 0.00 0.00 0.00 0.00 0.00 0.00 0.00 0.00 0.00 0.00 0.00 0.00 0.00 0.00 0.00 0.00 0.00 0.00 0.00 0.00 0.00 0.00 0.00 0.00 0.00 0.00 0.00 0.00
0.00 0.00 0.00 0.00 0.00 0.00 0.00 0.00 0.00 0.00 0.00 0.00 0.00 0.00 0.00 0.00 0.00 0.00 0.00 0.00 0.00 0.00 0.00 0.00 0.00 0.00 0.00 0.00 0.00 0.00 0.00 0.00 0.00 0.00 0.00 0.00 0.00 0.00 0.00 0.00 0.00 0.00
0.00 0.00 0.00 0.00 0.00 0.00 0.01 0.01 0.01 0.00 0.00 0.00 0.00 0.00 0.00 0.00 0.00 0.00 0.00 0.00 0.00 0.00 0.00 0.00 0.00 0.00 0.00 0.00 0.00 0.00 0.00 0.00 0.00 0.00 0.00 0.00 0.00 0.00 0.00 0.00 0.00 0.00
0.00 0.00 0.00 0.00 0.00 0.00 0.00 0.00 0.00 0.00 0.00 0.00 0.00 0.00 0.00 0.00 0.00 0.00 0.00 0.00 0.00 0.00 0.00 0.00 0.00 0.00 0.00 0.00 0.00 0.00 0.00 0.00 0.00 0.00 0.00 0.00 0.00 0.00 0.00 0.00 0.00 0.00
0.00 0.00 0.00 0.00 0.00 0.02 0.02 0.09 0.04 0.00 0.00 0.00 0.00 0.00 0.00 0.00 0.00 0.00 0.00 0.00 0.00 0.00 0.00 0.00 0.00 0.00 0.00 0.00 0.00 0.00 0.00 0.00 0.00 0.00 0.00 0.00 0.00 0.00 0.00 0.00 0.00 0.00
0.07 0.03 0.00 0.01 0.03 0.05 0.03 0.02 0.01 0.01 0.02 0.01 0.00 0.01 0.02 0.04 0.01 0.00 0.00 0.00 0.00 0.00 0.00 0.00 0.00 0.00 0.00 0.00 0.00 0.00 0.00 0.00 0.00 0.00 0.00 0.00 0.00 0.00 0.00 0.00 0.00 0.00
0.03 0.00 0.00 0.02 0.01 0.02 0.03 0.02 0.00 0.00 0.00 0.01 0.02 0.04 0.04 0.04 0.04 0.03 0.02 0.01 0.00 0.00 0.00 0.01 0.00 0.00 0.00 0.00 0.00 0.00 0.00 0.00 0.00 0.00 0.00 0.00 0.00 0.00 0.00 0.00 0.00 0.00
0.04 0.01 0.02 0.05 0.01 0.05 0.15 0.19 0.12 0.01 0.02 0.03 0.04 0.07 0.11 0.13 0.11 0.08 0.04 0.01 0.00 0.01 0.00 0.00 0.00 0.00 0.00 0.00 0.00 0.00 0.00 0.00 0.00 0.00 0.00 0.00 0.00 0.00 0.00 0.00 0.00 0.00
0.00 0.04 0.22 0.14 0.17 0.15 0.19 0.02 0.04 0.02 0.04 0.09 0.14 0.17 0.21 0.19 0.16 0.12 0.07 0.03 0.01 0.00 0.00 0.01 0.00 0.00 0.00 0.00 0.00 0.00 0.00 0.00 0.00 0.00 0.00 0.00 0.00 0.00 0.00 0.00 0.00 0.00
0.00 0.03 0.16 0.37 0.04 0.13 0.10 0.15 0.29 0.27 0.26 0.24 0.22 0.27 0.27 0.23 0.13 0.08 0.04 0.02 0.01 0.00 0.00 0.00 0.00 0.00 0.00 0.00 0.00 0.00 0.00 0.00 0.00 0.00 0.00 0.00 0.00 0.00 0.00 0.00 0.00 0.00
0.00 0.00 0.04 0.16 0.14 0.17 0.19 0.27 0.38 0.48 0.50 0.33 0.28 0.26 0.18 0.10 0.05 0.03 0.02 0.01 0.00 0.00 0.00 0.00 0.00 0.00 0.00 0.00 0.00 0.00 0.00 0.00 0.00 0.00 0.00 0.00 0.00 0.00 0.00 0.00 0.00 0.00
0.00 0.00 0.00 0.00 0.30 0.33 0.30 0.37 0.53 0.33 0.26 0.25 0.18 0.09 0.06 0.05 0.04 0.03 0.02 0.01 0.00 0.00 0.00 0.00 0.00 0.00 0.00 0.00 0.00 0.00 0.00 0.00 0.00 0.00 0.00 0.00 0.00 0.00 0.00 0.00 0.00 0.00
0.00 0.00 0.00 0.05 0.30 0.43 0.53 0.65 0.61 0.19 0.15 0.07 0.04 0.03 0.03 0.04 0.05 0.04 0.02 0.02 0.01 0.00 0.00 0.00 0.00 0.00 0.00 0.00 0.00 0.00 0.00 0.00 0.00 0.00 0.00 0.00 0.00 0.00 0.00 0.00 0.00 0.01
0.00 0.00 0.00 0.02 0.54 0.99 0.79 1.08 0.38 0.43 0.27 0.13 0.09 0.17 0.04 0.06 0.07 0.06 0.04 0.03 0.02 0.02 0.01 0.01 0.01 0.00 0.00 0.00 0.00 0.00 0.00 0.00 0.00 0.00 0.00 0.00 0.00 0.00 0.00 0.00 0.01 0.01
0.00 0.00 0.02 0.93 1.20 1.59 0.99 0.11 0.15 0.07 0.22 0.37 0.26 0.12 0.17 0.13 0.12 0.09 0.07 0.06 0.06 0.05 0.04 0.03 0.02 0.01 0.00 0.00 0.00 0.00 0.00 0.00 0.00 0.00 0.00 0.00 0.00 0.00 0.00 0.00 0.01 0.02
0.00 0.00 0.31 0.76 1.12 0.95 0.38 0.22 0.02 0.14 0.17 0.32 0.17 0.09 0.12 0.06 0.05 0.05 0.05 0.05 0.04 0.04 0.04 0.04 0.03 0.02 0.01 0.00 0.00 0.00 0.00 0.00 0.00 0.00 0.00 0.00 0.00 0.00 0.00 0.00 0.00 0.00
0.00 0.00 0.03 0.77 0.55 0.23 0.11 0.02 0.05 0.19 0.13 0.12 0.12 0.11 0.05 0.03 0.02 0.04 0.08 0.12 0.03 0.02 0.02 0.01 0.01 0.01 0.00 0.00 0.00 0.00 0.00 0.00 0.00 0.00 0.00 0.00 0.00 0.00 0.01 0.00 0.00 0.00
0.00 0.00 0.07 0.01 0.00 0.04 0.01 0.00 0.02 0.10 0.03 0.04 0.04 0.02 0.01 0.01 0.01 0.03 0.02 0.06 0.01 0.01 0.01 0.00 0.01 0.01 0.02 0.01 0.01 0.00 0.00 0.00 0.00 0.00 0.00 0.00 0.00 0.01 0.00 0.00 0.00 0.00
0.00 0.00 0.00 0.00 0.00 0.00 0.00 0.00 0.01 0.02 0.03 0.03 0.02 0.01 0.00 0.00 0.01 0.02 0.02 0.01 0.01 0.01 0.01 0.02 0.02 0.01 0.00 0.00 0.01 0.01 0.02 0.02 0.01 0.02 0.03 0.02 0.01 0.01 0.00 0.00 0.00 0.00
0.00 0.00 0.00 0.00 0.00 0.00 0.00 0.01 0.03 0.05 0.03 0.01 0.00 0.00 0.00 0.00 0.00 0.00 0.00 0.00 0.00 0.05 0.04 0.03 0.03 0.03 0.02 0.02 0.02 0.07 0.06 0.08 0.08 0.06 0.04 0.02 0.01 0.01 0.00 0.00 0.00 0.00
0.00 0.00 0.00 0.00 0.00 0.01 0.02 0.04 0.03 0.01 0.00 0.00 0.00 0.00 0.00 0.00 0.00 0.00 0.00 0.00 0.00 0.02 0.02 0.00 0.01 0.01 0.01 0.01 0.04 0.07 0.09 0.07 0.04 0.02 0.02 0.01 0.00 0.00 0.00 0.00 0.00 0.00

ECMWFNIL_prec_precacc_006.txt.gz
Total_Precipitation_Accumulation
0.00 0.00 0.00 0.00 0.00 0.00 0.00 0.00 0.00 0.00 0.00 0.00 0.00 0.00 0.00 0.00 0.00 0.00 0.00 0.00 0.00 0.00 0.00 0.00 0.00 0.00 0.00 0.00 0.00 0.00 0.00 0.00 0.00 0.01 0.01 0.01 0.01 0.01 0.01 0.00 0.00 0.00
0.00 0.00 0.00 0.00 0.00 0.00 0.00 0.00 0.00 0.00 0.00 0.00 0.00 0.00 0.00 0.00 0.00 0.00 0.00 0.00 0.00 0.00 0.00 0.00 0.00 0.00 0.00 0.00 0.00 0.00 0.00 0.00 0.00 0.00 0.01 0.00 0.00 0.01 0.01 0.00 0.00 0.00
0.00 0.00 0.00 0.00 0.00 0.00 0.00 0.00 0.00 0.00 0.00 0.00 0.00 0.00 0.00 0.00 0.00 0.00 0.00 0.00 0.00 0.00 0.00 0.00 0.00 0.00 0.00 0.00 0.00 0.00 0.00 0.00 0.00 0.00 0.00 0.00 0.01 0.01 0.01 0.01 0.01 0.01
0.00 0.00 0.00 0.00 0.00 0.00 0.00 0.00 0.00 0.00 0.00 0.00 0.00 0.00 0.00 0.00 0.00 0.00 0.00 0.00 0.00 0.00 0.00 0.00 0.00 0.00 0.00 0.00 0.00 0.00 0.00 0.00 0.00 0.00 0.00 0.00 0.01 0.00 0.01 0.01 0.00 0.00
0.00 0.00 0.00 0.00 0.00 0.00 0.00 0.00 0.00 0.00 0.00 0.00 0.00 0.00 0.00 0.00 0.00 0.00 0.00 0.00 0.00 0.00 0.00 0.00 0.00 0.00 0.00 0.00 0.00 0.00 0.00 0.00 0.00 0.00 0.00 0.00 0.00 0.00 0.00 0.00 0.00 0.00
0.00 0.00 0.00 0.00 0.00 0.00 0.00 0.00 0.00 0.00 0.00 0.00 0.00 0.00 0.00 0.00 0.00 0.00 0.00 0.00 0.00 0.00 0.00 0.00 0.00 0.00 0.00 0.00 0.00 0.00 0.00 0.00 0.00 0.00 0.00 0.00 0.00 0.00 0.00 0.00 0.00 0.00
0.00 0.00 0.00 0.00 0.00 0.00 0.00 0.00 0.00 0.00 0.00 0.00 0.00 0.00 0.00 0.00 0.00 0.00 0.00 0.00 0.00 0.00 0.00 0.00 0.00 0.00 0.00 0.00 0.00 0.00 0.00 0.00 0.00 0.00 0.00 0.00 0.00 0.00 0.00 0.00 0.00 0.00
0.00 0.00 0.00 0.00 0.00 0.00 0.01 0.01 0.01 0.00 0.00 0.00 0.00 0.00 0.00 0.00 0.00 0.00 0.00 0.00 0.00 0.00 0.00 0.00 0.00 0.00 0.00 0.00 0.00 0.00 0.00 0.00 0.00 0.00 0.00 0.00 0.00 0.00 0.00 0.00 0.00 0.00
0.00 0.00 0.00 0.00 0.00 0.00 0.00 0.00 0.00 0.00 0.00 0.00 0.00 0.00 0.00 0.00 0.00 0.00 0.00 0.00 0.00 0.00 0.00 0.00 0.00 0.00 0.00 0.00 0.00 0.00 0.00 0.00 0.00 0.00 0.00 0.00 0.00 0.00 0.00 0.00 0.00 0.00
0.00 0.00 0.00 0.00 0.00 0.02 0.02 0.09 0.04 0.00 0.00 0.00 0.00 0.00 0.00 0.00 0.00 0.00 0.00 0.00 0.01 0.02 0.02 0.01 0.01 0.00 0.00 0.00 0.00 0.00 0.00 0.00 0.00 0.00 0.00 0.00 0.00 0.00 0.00 0.00 0.00 0.00
0.07 0.03 0.00 0.01 0.03 0.05 0.03 0.03 0.02 0.01 0.03 0.01 0.00 0.01 0.03 0.06 0.04 0.04 0.08 0.11 0.11 0.09 0.07 0.04 0.02 0.01 0.00 0.00 0.00 0.00 0.00 0.00 0.00 0.00 0.00 0.00 0.00 0.00 0.00 0.00 0.00 0.00
0.03 0.01 0.01 0.02 0.01 0.02 0.05 0.02 0.01 0.00 0.00 0.01 0.02 0.04 0.06 0.07 0.10 0.16 0.19 0.17 0.14 0.11 0.08 0.06 0.02 0.00 0.00 0.00 0.00 0.00 0.00 0.00 0.00 0.00 0.00 0.00 0.00 0.00 0.00 0.00 0.00 0.00
0.04 0.01 0.03 0.05 0.01 0.05 0.16 0.22 0.12 0.01 0.02 0.03 0.04 0.10 0.21 0.20 0.22 0.22 0.20 0.17 0.13 0.10 0.05 0.01 0.00 0.00 0.00 0.00 0.00 0.00 0.00 0.00 0.00 0.00 0.00 0.00 0.00 0.00 0.00 0.00 0.00 0.00
0.00 0.04 0.22 0.15 0.22 0.17 0.21 0.11 0.19 0.13 0.12 0.15 0.29 0.29 0.26 0.28 0.27 0.25 0.22 0.15 0.07 0.02 0.00 0.01 0.00 0.00 0.00 0.00 0.00 0.00 0.00 0.00 0.00 0.00 0.00 0.00 0.00 0.00 0.00 0.00 0.00 0.00
0.00 0.03 0.16 0.38 0.12 0.41 0.32 0.20 0.35 0.30 0.35 0.37 0.26 0.36 0.38 0.31 0.22 0.14 0.07 0.04 0.02 0.01 0.00 0.00 0.00 0.00 0.00 0.00 0.00 0.00 0.00 0.00 0.00 0.00 0.00 0.00 0.00 0.00 0.00 0.00 0.00 0.00
0.00 0.00 0.04 0.16 0.15 1.40 1.81 0.54 0.60 0.69 0.67 0.53 0.36 0.34 0.25 0.16 0.11 0.07 0.05 0.03 0.01 0.01 0.01 0.00 0.00 0.00 0.00 0.00 0.00 0.00 0.00 0.00 0.00 0.00 0.00 0.00 0.00 0.00 0.00 0.00 0.00 0.00
0.00 0.00 0.00 0.00 0.60 0.96 1.15 1.27 0.76 0.37 0.28 0.29 0.25 0.16 0.13 0.13 0.11 0.10 0.07 0.04 0.02 0.01 0.01 0.00 0.00 0.00 0.00 0.00 0.00 0.00 0.00 0.00 0.00 0.00 0.00 0.00 0.01 0.00 0.00 0.00 0.00 0.00
0.00 0.00 0.00 0.06 0.44 1.07 1.09 0.96 0.63 0.19 0.16 0.09 0.08 0.08 0.10 0.10 0.12 0.12 0.09 0.06 0.04 0.02 0.01 0.00 0.00 0.00 0.00 0.00 0.00 0.00 0.00 0.00 0.00 0.00 0.00 0.00 0.00 0.00 0.00 0.01 0.00 0.03
0.00 0.00 0.00 0.19 0.98 1.22 0.79 1.08 0.38 0.43 0.27 0.13 0.10 0.19 0.05 0.09 0.13 0.14 0.12 0.09 0.06 0.03 0.01 0.01 0.01 0.00 0.00 0.00 0.00 0.00 0.00 0.00 0.00 0.00 0.00 0.00 0.00 0.00 0.00 0.01 0.05 0.07
0.00 0.00 0.02 0.97 1.21 1.60 0.99 0.11 0.15 0.07 0.22 0.37 0.26 0.12 0.18 0.13 0.14 0.15 0.13 0.11 0.08 0.06 0.05 0.03 0.02 0.01 0.01 0.00 0.00 0.01 0.01 0.01 0.00 0.00 0.00 0.00 0.01 0.01 0.00 0.00 0.01 0.03
0.00 0.00 0.31 0.77 1.12 0.96 0.38 0.22 0.02 0.14 0.17 0.32 0.17 0.09 0.12 0.06 0.06 0.06 0.06 0.06 0.05 0.05 0.05 0.04 0.04 0.02 0.01 0.01 0.00 0.00 0.00 0.00 0.00 0.01 0.01 0.01 0.01 0.00 0.00 0.00 0.00 0.00
0.00 0.00 0.03 0.77 0.55 0.23 0.11 0.02 0.05 0.19 0.13 0.12 0.12 0.11 0.05 0.03 0.04 0.04 0.08 0.21 0.15 0.14 0.11 0.08 0.05 0.03 0.01 0.01 0.01 0.01 0.01 0.01 0.01 0.01 0.00 0.00 0.00 0.00 0.01 0.00 0.00 0.00
0.00 0.00 0.07 0.01 0.00 0.04 0.01 0.00 0.02 0.10 0.03 0.05 0.05 0.03 0.01 0.01 0.02 0.04 0.03 0.09 0.07 0.03 0.03 0.03 0.04 0.04 0.03 0.02 0.01 0.01 0.01 0.01 0.01 0.01 0.00 0.00 0.00 0.01 0.00 0.00 0.00 0.00
0.00 0.00 0.00 0.00 0.00 0.00 0.00 0.00 0.01 0.03 0.04 0.04 0.03 0.01 0.01 0.00 0.01 0.02 0.04 0.03 0.02 0.02 0.02 0.05 0.04 0.02 0.01 0.01 0.01 0.01 0.02 0.03 0.02 0.02 0.03 0.02 0.01 0.01 0.01 0.00 0.00 0.00
0.00 0.00 0.00 0.00 0.00 0.00 0.00 0.01 0.03 0.05 0.03 0.02 0.01 0.01 0.00 0.00 0.00 0.02 0.02 0.01 0.00 0.05 0.04 0.03 0.03 0.03 0.02 0.02 0.02 0.08 0.07 0.08 0.08 0.06 0.04 0.08 0.03 0.01 0.00 0.00 0.00 0.00
0.00 0.00 0.00 0.00 0.00 0.01 0.02 0.04 0.03 0.01 0.00 0.00 0.00 0.00 0.00 0.00 0.00 0.00 0.01 0.01 0.02 0.04 0.03 0.00 0.01 0.02 0.01 0.01 0.04 0.07 0.09 0.07 0.04 0.02 0.02 0.01 0.00 0.00 0.00 0.00 0.00 0.00

ECMWFNIL_prec_precacc_009.txt.gz
Total_Precipitation_Accumulation
0.00 0.00 0.00 0.00 0.00 0.00 0.00 0.00 0.00 0.00 0.00 0.00 0.00 0.00 0.00 0.00 0.00 0.00 0.00 0.00 0.00 0.00 0.00 0.00 0.00 0.00 0.00 0.00 0.00 0.00 0.00 0.00 0.00 0.01 0.01 0.01 0.01 0.01 0.01 0.00 0.00 0.00
0.00 0.00 0.00 0.00 0.00 0.00 0.00 0.00 0.00 0.00 0.00 0.00 0.00 0.00 0.00 0.00 0.00 0.00 0.00 0.00 0.00 0.00 0.00 0.00 0.00 0.00 0.00 0.00 0.00 0.00 0.00 0.00 0.00 0.00 0.01 0.00 0.01 0.01 0.01 0.00 0.00 0.00
0.00 0.00 0.00 0.00 0.00 0.00 0.00 0.00 0.00 0.00 0.00 0.00 0.00 0.00 0.00 0.00 0.00 0.00 0.00 0.00 0.00 0.00 0.00 0.00 0.00 0.00 0.00 0.00 0.00 0.00 0.00 0.00 0.00 0.00 0.00 0.00 0.01 0.01 0.01 0.01 0.01 0.01
0.00 0.00 0.00 0.00 0.00 0.00 0.00 0.00 0.00 0.00 0.00 0.00 0.00 0.00 0.00 0.00 0.00 0.00 0.00 0.00 0.00 0.00 0.00 0.00 0.00 0.00 0.00 0.00 0.00 0.00 0.00 0.00 0.00 0.00 0.00 0.00 0.01 0.00 0.01 0.01 0.00 0.00
0.00 0.00 0.00 0.00 0.00 0.00 0.00 0.00 0.00 0.00 0.00 0.00 0.00 0.00 0.00 0.00 0.00 0.00 0.00 0.00 0.00 0.00 0.00 0.00 0.00 0.00 0.00 0.00 0.00 0.00 0.00 0.00 0.00 0.00 0.00 0.00 0.00 0.00 0.00 0.00 0.00 0.00
0.00 0.00 0.00 0.00 0.00 0.00 0.00 0.00 0.00 0.00 0.00 0.00 0.00 0.00 0.00 0.00 0.00 0.00 0.00 0.00 0.00 0.00 0.00 0.00 0.00 0.00 0.00 0.00 0.00 0.00 0.00 0.00 0.00 0.00 0.00 0.00 0.00 0.00 0.00 0.00 0.00 0.00
0.00 0.00 0.00 0.00 0.00 0.00 0.00 0.00 0.00 0.00 0.01 0.00 0.01 0.00 0.00 0.00 0.00 0.00 0.00 0.00 0.00 0.00 0.00 0.00 0.00 0.00 0.00 0.00 0.00 0.00 0.00 0.00 0.00 0.00 0.00 0.00 0.00 0.00 0.00 0.00 0.00 0.00
0.00 0.00 0.00 0.00 0.00 0.00 0.01 0.01 0.01 0.00 0.00 0.00 0.00 0.00 0.00 0.00 0.00 0.00 0.00 0.00 0.00 0.00 0.00 0.00 0.00 0.00 0.00 0.00 0.00 0.00 0.00 0.00 0.00 0.00 0.00 0.00 0.00 0.00 0.00 0.00 0.00 0.00
0.00 0.00 0.00 0.00 0.00 0.00 0.01 0.01 0.00 0.01 0.00 0.00 0.00 0.00 0.00 0.00 0.00 0.00 0.00 0.00 0.00 0.00 0.00 0.00 0.01 0.01 0.00 0.00 0.00 0.00 0.00 0.00 0.00 0.00 0.00 0.00 0.00 0.00 0.00 0.00 0.00 0.00
0.00 0.00 0.00 0.00 0.00 0.02 0.03 0.10 0.04 0.01 0.01 0.00 0.00 0.00 0.00 0.00 0.00 0.00 0.00 0.00 0.01 0.02 0.03 0.03 0.02 0.02 0.02 0.00 0.00 0.00 0.00 0.00 0.00 0.00 0.00 0.00 0.00 0.00 0.00 0.00 0.00 0.00
0.07 0.03 0.00 0.01 0.03 0.08 0.05 0.05 0.04 0.05 0.03 0.01 0.00 0.01 0.03 0.06 0.04 0.04 0.08 0.11 0.12 0.09 0.07 0.06 0.04 0.02 0.00 0.00 0.00 0.00 0.00 0.00 0.00 0.00 0.00 0.00 0.00 0.00 0.00 0.00 0.00 0.00
0.03 0.01 0.01 0.02 0.05 0.03 0.06 0.02 0.01 0.00 0.00 0.01 0.02 0.05 0.06 0.07 0.10 0.16 0.19 0.18 0.14 0.11 0.08 0.06 0.02 0.00 0.00 0.00 0.00 0.00 0.00 0.00 0.00 0.00 0.00 0.00 0.00 0.00 0.00 0.00 0.00 0.00
0.04 0.02 0.03 0.05 0.03 0.05 0.16 0.22 0.12 0.01 0.02 0.03 0.04 0.11 0.22 0.20 0.24 0.23 0.20 0.17 0.13 0.10 0.05 0.01 0.00 0.00 0.00 0.00 0.00 0.00 0.00 0.00 0.00 0.00 0.00 0.00 0.00 0.00 0.00 0.00 0.00 0.01
0.00 0.05 0.23 0.15 0.22 0.17 0.21 0.13 0.23 0.14 0.12 0.15 0.29 0.30 0.29 0.31 0.28 0.26 0.22 0.15 0.07 0.02 0.00 0.01 0.00 0.00 0.00 0.00 0.00 0.00 0.00 0.00 0.00 0.00 0.00 0.00 0.01 0.01 0.00 0.00 0.00 0.00
0.00 0.03 0.16 0.38 0.12 0.41 0.32 0.21 0.35 0.30 0.35 0.37 0.26 0.38 0.41 0.33 0.22 0.14 0.07 0.04 0.02 0.01 0.00 0.00 0.00 0.00 0.00 0.00 0.00 0.00 0.00 0.00 0.00 0.00 0.00 0.00 0.01 0.03 0.01 0.01 0.00 0.01
0.00 0.00 0.04 0.16 0.15 1.40 1.81 0.56 0.60 0.69 0.67 0.53 0.36 0.35 0.25 0.16 0.11 0.07 0.05 0.03 0.01 0.01 0.01 0.00 0.00 0.00 0.00 0.00 0.00 0.00 0.00 0.00 0.00 0.00 0.00 0.00 0.00 0.00 0.01 0.00 0.00 0.02
0.00 0.00 0.00 0.00 0.60 0.96 1.15 1.32 0.79 0.37 0.28 0.29 0.25 0.16 0.13 0.13 0.11 0.10 0.07 0.04 0.02 0.01 0.01 0.00 0.00 0.00 0.00 0.00 0.00 0.00 0.00 0.00 0.00 0.00 0.00 0.00 0.01 0.00 0.01 0.00 0.00 0.00
0.00 0.00 0.00 0.06 0.44 1.07 1.09 0.96 0.63 0.19 0.16 0.09 0.08 0.08 0.10 0.10 0.12 0.12 0.09 0.06 0.04 0.02 0.01 0.00 0.00 0.00 0.00 0.00 0.00 0.00 0.00 0.00 0.00 0.00 0.00 0.00 0.00 0.00 0.00 0.01 0.01 0.04
0.00 0.00 0.00 0.19 0.98 1.22 0.79 1.08 0.38 0.43 0.27 0.13 0.10 0.19 0.05 0.09 0.13 0.14 0.12 0.09 0.06 0.03 0.01 0.01 0.01 0.00 0.00 0.00 0.00 0.00 0.00 0.00 0.00 0.00 0.00 0.00 0.00 0.00 0.00 0.01 0.05 0.07
0.00 0.00 0.02 0.97 1.21 1.60 0.99 0.11 0.15 0.07 0.22 0.37 0.26 0.12 0.18 0.13 0.14 0.15 0.13 0.11 0.08 0.06 0.05 0.03 0.02 0.01 0.01 0.00 0.00 0.01 0.01 0.01 0.01 0.01 0.00 0.01 0.01 0.01 0.01 0.00 0.02 0.04
0.00 0.00 0.31 0.77 1.12 0.96 0.38 0.22 0.02 0.14 0.17 0.32 0.17 0.09 0.12 0.06 0.06 0.06 0.06 0.06 0.05 0.05 0.05 0.05 0.04 0.02 0.01 0.01 0.00 0.00 0.00 0.00 0.00 0.01 0.01 0.01 0.01 0.01 0.01 0.01 0.00 0.00
0.01 0.01 0.03 0.77 0.55 0.23 0.11 0.02 0.05 0.19 0.13 0.12 0.12 0.11 0.05 0.03 0.04 0.04 0.08 0.21 0.15 0.15 0.12 0.08 0.05 0.03 0.01 0.01 0.01 0.02 0.01 0.01 0.02 0.01 0.01 0.00 0.00 0.00 0.01 0.01 0.01 0.01
0.00 0.01 0.07 0.01 0.00 0.04 0.01 0.00 0.02 0.10 0.03 0.05 0.05 0.03 0.01 0.01 0.02 0.04 0.03 0.09 0.08 0.03 0.03 0.03 0.05 0.05 0.05 0.04 0.04 0.02 0.02 0.02 0.01 0.01 0.00 0.00 0.03 0.04 0.02 0.03 0.06 0.02
0.00 0.00 0.00 0.01 0.00 0.00 0.00 0.01 0.01 0.03 0.04 0.04 0.03 0.01 0.01 0.00 0.01 0.02 0.04 0.03 0.02 0.02 0.02 0.05 0.06 0.03 0.01 0.01 0.01 0.01 0.02 0.03 0.02 0.02 0.06 0.02 0.03 0.08 0.23 0.19 0.03 0.01
0.00 0.00 0.00 0.00 0.00 0.00 0.00 0.02 0.04 0.05 0.03 0.02 0.01 0.01 0.00 0.00 0.00 0.02 0.03 0.01 0.00 0.06 0.04 0.03 0.05 0.04 0.03 0.02 0.02 0.08 0.07 0.09 0.11 0.09 0.06 0.24 0.13 0.27 0.19 0.01 0.00 0.00
0.00 0.00 0.00 0.00 0.00 0.01 0.02 0.04 0.03 0.01 0.00 0.00 0.00 0.01 0.01 0.01 0.00 0.01 0.02 0.01 0.02 0.04 0.05 0.01 0.03 0.06 0.01 0.01 0.04 0.07 0.09 0.08 0.06 0.04 0.03 0.02 0.02 0.09 0.10 0.00 0.00 0.00

ECMWFNIL_prec_precacc_012.txt.gz
Total_Precipitation_Accumulation
0.00 0.00 0.00 0.00 0.00 0.00 0.00 0.00 0.00 0.00 0.00 0.00 0.00 0.00 0.00 0.00 0.00 0.00 0.00 0.00 0.00 0.00 0.00 0.00 0.00 0.00 0.00 0.00 0.00 0.00 0.00 0.00 0.00 0.01 0.01 0.01 0.01 0.01 0.01 0.00 0.00 0.00
0.00 0.00 0.00 0.00 0.00 0.00 0.00 0.00 0.00 0.00 0.00 0.00 0.00 0.00 0.00 0.00 0.00 0.00 0.00 0.00 0.00 0.00 0.00 0.00 0.00 0.00 0.00 0.00 0.00 0.00 0.00 0.00 0.00 0.00 0.01 0.00 0.01 0.01 0.01 0.00 0.00 0.00
0.00 0.00 0.00 0.00 0.00 0.00 0.00 0.00 0.00 0.00 0.00 0.00 0.00 0.00 0.00 0.00 0.00 0.00 0.00 0.00 0.00 0.00 0.00 0.00 0.00 0.00 0.00 0.00 0.00 0.00 0.00 0.00 0.00 0.00 0.00 0.00 0.01 0.01 0.01 0.01 0.01 0.01
0.00 0.00 0.00 0.00 0.00 0.00 0.00 0.00 0.00 0.00 0.00 0.00 0.00 0.00 0.00 0.00 0.00 0.00 0.00 0.00 0.00 0.00 0.00 0.00 0.00 0.00 0.00 0.00 0.00 0.00 0.00 0.00 0.00 0.00 0.00 0.00 0.01 0.00 0.01 0.01 0.00 0.00
0.00 0.00 0.00 0.00 0.00 0.00 0.00 0.00 0.00 0.00 0.00 0.00 0.00 0.00 0.00 0.00 0.00 0.00 0.00 0.00 0.00 0.00 0.00 0.00 0.00 0.00 0.00 0.00 0.00 0.00 0.00 0.00 0.00 0.00 0.00 0.00 0.00 0.00 0.00 0.00 0.00 0.00
0.00 0.00 0.00 0.00 0.00 0.00 0.00 0.00 0.00 0.00 0.00 0.00 0.00 0.00 0.00 0.00 0.00 0.00 0.00 0.00 0.00 0.00 0.00 0.00 0.00 0.00 0.00 0.00 0.00 0.00 0.00 0.00 0.00 0.00 0.00 0.00 0.00 0.00 0.00 0.00 0.00 0.00
0.00 0.00 0.00 0.00 0.00 0.00 0.00 0.00 0.00 0.00 0.01 0.00 0.01 0.00 0.00 0.00 0.00 0.00 0.00 0.00 0.00 0.00 0.00 0.00 0.00 0.00 0.00 0.00 0.00 0.00 0.00 0.00 0.00 0.00 0.00 0.00 0.00 0.00 0.00 0.00 0.00 0.00
0.00 0.00 0.00 0.00 0.00 0.00 0.01 0.01 0.01 0.00 0.00 0.00 0.00 0.00 0.00 0.00 0.00 0.00 0.00 0.00 0.00 0.00 0.00 0.00 0.00 0.00 0.00 0.00 0.00 0.00 0.00 0.00 0.00 0.00 0.00 0.00 0.00 0.00 0.00 0.00 0.00 0.00
0.00 0.00 0.00 0.00 0.00 0.00 0.01 0.01 0.00 0.01 0.00 0.00 0.00 0.00 0.00 0.00 0.00 0.00 0.00 0.00 0.00 0.00 0.00 0.00 0.01 0.01 0.00 0.00 0.00 0.00 0.00 0.00 0.00 0.00 0.00 0.00 0.00 0.00 0.00 0.00 0.00 0.00
0.00 0.00 0.00 0.00 0.00 0.02 0.03 0.10 0.04 0.01 0.01 0.00 0.00 0.00 0.00 0.00 0.00 0.00 0.00 0.00 0.01 0.02 0.03 0.03 0.02 0.02 0.02 0.00 0.00 0.00 0.00 0.00 0.00 0.00 0.00 0.00 0.00 0.00 0.00 0.00 0.00 0.00
0.07 0.03 0.00 0.01 0.03 0.08 0.05 0.05 0.04 0.05 0.03 0.01 0.00 0.01 0.03 0.06 0.04 0.04 0.08 0.11 0.12 0.09 0.07 0.06 0.04 0.02 0.00 0.00 0.00 0.00 0.00 0.00 0.00 0.00 0.00 0.00 0.00 0.00 0.00 0.00 0.00 0.00
0.03 0.01 0.01 0.02 0.05 0.03 0.06 0.02 0.01 0.00 0.00 0.01 0.02 0.05 0.06 0.07 0.10 0.16 0.19 0.18 0.14 0.11 0.08 0.06 0.02 0.00 0.00 0.00 0.00 0.00 0.00 0.00 0.00 0.00 0.00 0.00 0.00 0.00 0.00 0.00 0.00 0.00
0.04 0.02 0.03 0.05 0.03 0.05 0.16 0.22 0.12 0.01 0.02 0.03 0.04 0.11 0.22 0.20 0.24 0.23 0.20 0.17 0.13 0.10 0.05 0.01 0.00 0.00 0.00 0.00 0.00 0.00 0.00 0.00 0.00 0.00 0.00 0.00 0.00 0.00 0.00 0.00 0.00 0.01
0.00 0.05 0.23 0.15 0.22 0.17 0.21 0.13 0.23 0.14 0.12 0.15 0.29 0.30 0.29 0.31 0.28 0.26 0.22 0.15 0.07 0.02 0.00 0.01 0.00 0.00 0.00 0.00 0.00 0.00 0.00 0.00 0.00 0.00 0.00 0.00 0.01 0.01 0.00 0.00 0.00 0.00
0.00 0.03 0.16 0.38 0.12 0.41 0.32 0.21 0.35 0.30 0.35 0.37 0.26 0.38 0.41 0.33 0.22 0.14 0.07 0.04 0.02 0.01 0.00 0.00 0.00 0.00 0.00 0.00 0.00 0.00 0.00 0.00 0.00 0.00 0.00 0.00 0.01 0.03 0.01 0.01 0.00 0.01
0.00 0.00 0.04 0.16 0.15 1.40 1.81 0.56 0.60 0.69 0.67 0.53 0.36 0.35 0.25 0.16 0.11 0.07 0.05 0.03 0.01 0.01 0.01 0.00 0.00 0.00 0.00 0.00 0.00 0.00 0.00 0.00 0.00 0.00 0.00 0.00 0.00 0.00 0.01 0.00 0.00 0.02
0.00 0.00 0.00 0.00 0.60 0.96 1.15 1.32 0.79 0.37 0.28 0.29 0.25 0.16 0.13 0.13 0.11 0.10 0.07 0.04 0.02 0.01 0.01 0.00 0.00 0.00 0.00 0.00 0.00 0.00 0.00 0.00 0.00 0.00 0.00 0.00 0.01 0.00 0.01 0.00 0.00 0.00
0.00 0.00 0.00 0.06 0.44 1.07 1.09 0.96 0.63 0.19 0.16 0.09 0.08 0.08 0.10 0.10 0.12 0.12 0.09 0.06 0.04 0.02 0.01 0.00 0.00 0.00 0.00 0.00 0.00 0.00 0.00 0.00 0.00 0.00 0.00 0.00 0.00 0.00 0.00 0.01 0.01 0.04
0.00 0.00 0.00 0.19 0.98 1.22 0.79 1.08 0.38 0.43 0.27 0.13 0.10 0.19 0.05 0.09 0.13 0.14 0.12 0.09 0.06 0.03 0.01 0.01 0.01 0.00 0.00 0.00 0.00 0.00 0.00 0.00 0.00 0.00 0.00 0.00 0.00 0.00 0.00 0.01 0.05 0.07
0.00 0.00 0.02 0.97 1.21 1.60 0.99 0.11 0.15 0.07 0.22 0.37 0.26 0.12 0.18 0.13 0.14 0.15 0.13 0.11 0.08 0.06 0.05 0.03 0.02 0.01 0.01 0.00 0.00 0.01 0.01 0.01 0.01 0.01 0.00 0.01 0.01 0.01 0.01 0.00 0.02 0.04
0.00 0.00 0.31 0.77 1.12 0.96 0.38 0.22 0.02 0.14 0.17 0.32 0.17 0.09 0.12 0.06 0.06 0.06 0.06 0.06 0.05 0.05 0.05 0.05 0.04 0.02 0.01 0.01 0.00 0.00 0.00 0.00 0.00 0.01 0.01 0.01 0.01 0.01 0.01 0.01 0.01 0.00
0.01 0.01 0.03 0.77 0.55 0.23 0.11 0.02 0.05 0.19 0.13 0.12 0.12 0.11 0.05 0.03 0.04 0.04 0.08 0.21 0.15 0.15 0.12 0.08 0.05 0.03 0.01 0.01 0.01 0.02 0.01 0.01 0.02 0.01 0.01 0.00 0.01 0.00 0.01 0.01 0.01 0.02
0.00 0.01 0.07 0.01 0.00 0.04 0.01 0.00 0.02 0.10 0.03 0.05 0.05 0.03 0.01 0.01 0.02 0.04 0.03 0.09 0.08 0.03 0.03 0.03 0.05 0.05 0.05 0.04 0.04 0.02 0.02 0.02 0.01 0.01 0.00 0.01 0.04 0.05 0.03 0.03 0.07 0.04
0.00 0.00 0.00 0.01 0.00 0.00 0.00 0.01 0.01 0.03 0.04 0.04 0.03 0.01 0.01 0.00 0.01 0.02 0.04 0.03 0.02 0.02 0.02 0.05 0.06 0.03 0.01 0.01 0.01 0.01 0.02 0.03 0.02 0.02 0.06 0.04 0.05 0.09 0.25 0.21 0.04 0.05
0.00 0.00 0.00 0.00 0.01 0.00 0.00 0.02 0.04 0.05 0.03 0.02 0.01 0.01 0.00 0.00 0.00 0.02 0.03 0.01 0.01 0.06 0.04 0.03 0.05 0.04 0.03 0.02 0.02 0.08 0.07 0.09 0.11 0.09 0.07 0.26 0.14 0.28 0.22 0.05 0.11 0.04
0.00 0.00 0.00 0.00 0.00 0.01 0.02 0.04 0.03 0.01 0.01 0.00 0.01 0.01 0.01 0.01 0.00 0.01 0.02 0.01 0.02 0.04 0.05 0.01 0.03 0.07 0.02 0.01 0.04 0.07 0.09 0.08 0.08 0.08 0.06 0.03 0.02 0.09 0.16 0.08 0.04 0.08

ECMWFNIL_prec_precacc_015.txt.gz
Total_Precipitation_Accumulation
0.00 0.00 0.00 0.00 0.00 0.00 0.00 0.00 0.00 0.00 0.00 0.00 0.00 0.00 0.00 0.00 0.00 0.00 0.00 0.00 0.00 0.00 0.00 0.00 0.00 0.00 0.00 0.00 0.00 0.00 0.00 0.00 0.00 0.01 0.01 0.01 0.01 0.01 0.01 0.00 0.00 0.00
0.00 0.00 0.00 0.00 0.00 0.00 0.00 0.00 0.00 0.00 0.00 0.00 0.00 0.00 0.00 0.00 0.00 0.00 0.00 0.00 0.00 0.00 0.00 0.00 0.00 0.00 0.00 0.00 0.00 0.00 0.00 0.00 0.00 0.00 0.01 0.00 0.01 0.01 0.01 0.00 0.00 0.00
0.00 0.00 0.00 0.00 0.00 0.00 0.00 0.00 0.00 0.00 0.00 0.00 0.00 0.00 0.00 0.00 0.00 0.00 0.00 0.00 0.00 0.00 0.00 0.00 0.00 0.00 0.00 0.00 0.00 0.00 0.00 0.00 0.00 0.00 0.00 0.00 0.01 0.01 0.01 0.01 0.01 0.01
0.00 0.00 0.00 0.00 0.00 0.00 0.00 0.00 0.00 0.00 0.00 0.00 0.00 0.00 0.00 0.00 0.00 0.00 0.00 0.00 0.00 0.00 0.00 0.00 0.00 0.00 0.00 0.00 0.00 0.00 0.00 0.00 0.00 0.00 0.00 0.00 0.01 0.00 0.01 0.01 0.00 0.00
0.00 0.00 0.00 0.00 0.00 0.00 0.00 0.00 0.00 0.00 0.00 0.00 0.00 0.00 0.00 0.00 0.00 0.00 0.00 0.00 0.00 0.00 0.00 0.00 0.00 0.00 0.00 0.00 0.00 0.00 0.00 0.00 0.00 0.00 0.00 0.00 0.00 0.00 0.00 0.00 0.00 0.00
0.00 0.00 0.00 0.00 0.00 0.00 0.00 0.00 0.00 0.00 0.00 0.00 0.00 0.00 0.00 0.00 0.00 0.00 0.00 0.00 0.00 0.00 0.00 0.00 0.00 0.00 0.00 0.00 0.00 0.00 0.00 0.00 0.00 0.00 0.00 0.00 0.00 0.00 0.00 0.00 0.00 0.00
0.00 0.00 0.00 0.00 0.00 0.00 0.00 0.00 0.00 0.00 0.01 0.00 0.01 0.00 0.00 0.00 0.00 0.00 0.00 0.00 0.00 0.00 0.00 0.00 0.00 0.00 0.00 0.00 0.00 0.00 0.00 0.00 0.00 0.00 0.00 0.00 0.00 0.00 0.00 0.00 0.00 0.00
0.00 0.00 0.00 0.00 0.00 0.00 0.01 0.01 0.01 0.00 0.00 0.00 0.00 0.00 0.00 0.00 0.00 0.00 0.00 0.00 0.00 0.00 0.00 0.00 0.00 0.00 0.00 0.00 0.00 0.00 0.00 0.00 0.00 0.00 0.00 0.00 0.00 0.00 0.00 0.00 0.00 0.00
0.00 0.00 0.00 0.00 0.00 0.00 0.01 0.01 0.00 0.01 0.00 0.00 0.00 0.00 0.00 0.00 0.00 0.00 0.00 0.00 0.00 0.00 0.00 0.00 0.01 0.01 0.00 0.00 0.00 0.00 0.00 0.00 0.00 0.00 0.00 0.00 0.00 0.00 0.00 0.00 0.00 0.00
0.00 0.00 0.00 0.00 0.00 0.02 0.03 0.10 0.04 0.01 0.01 0.00 0.00 0.00 0.00 0.00 0.00 0.00 0.00 0.00 0.01 0.02 0.03 0.03 0.02 0.02 0.02 0.00 0.00 0.00 0.00 0.00 0.00 0.00 0.00 0.00 0.00 0.00 0.00 0.00 0.00 0.00
0.07 0.03 0.00 0.01 0.03 0.08 0.05 0.05 0.04 0.05 0.03 0.01 0.00 0.01 0.03 0.06 0.04 0.04 0.08 0.11 0.12 0.09 0.07 0.06 0.04 0.02 0.00 0.00 0.00 0.00 0.00 0.00 0.00 0.00 0.00 0.00 0.00 0.00 0.00 0.00 0.00 0.00
0.03 0.01 0.01 0.02 0.05 0.03 0.06 0.02 0.01 0.00 0.00 0.01 0.02 0.05 0.06 0.07 0.10 0.16 0.19 0.18 0.14 0.11 0.08 0.06 0.02 0.00 0.00 0.00 0.00 0.00 0.00 0.00 0.00 0.00 0.00 0.00 0.00 0.00 0.00 0.00 0.00 0.00
0.04 0.02 0.03 0.05 0.03 0.05 0.16 0.22 0.12 0.01 0.02 0.03 0.04 0.11 0.22 0.20 0.24 0.23 0.20 0.17 0.13 0.10 0.05 0.01 0.00 0.00 0.00 0.00 0.00 0.00 0.00 0.00 0.00 0.00 0.00 0.00 0.00 0.00 0.00 0.00 0.00 0.01
0.00 0.05 0.23 0.15 0.22 0.17 0.21 0.13 0.23 0.14 0.12 0.15 0.29 0.30 0.29 0.31 0.28 0.26 0.22 0.15 0.07 0.02 0.00 0.01 0.00 0.00 0.00 0.00 0.00 0.00 0.00 0.00 0.00 0.00 0.00 0.00 0.01 0.01 0.00 0.00 0.00 0.00
0.00 0.03 0.16 0.38 0.12 0.41 0.32 0.21 0.35 0.30 0.35 0.37 0.26 0.38 0.41 0.33 0.22 0.14 0.07 0.04 0.02 0.01 0.00 0.00 0.00 0.00 0.00 0.00 0.00 0.00 0.00 0.00 0.00 0.00 0.00 0.00 0.01 0.03 0.01 0.01 0.00 0.01
0.00 0.00 0.04 0.16 0.15 1.40 1.81 0.56 0.60 0.69 0.67 0.53 0.36 0.35 0.25 0.16 0.11 0.07 0.05 0.03 0.01 0.01 0.01 0.00 0.00 0.00 0.00 0.00 0.00 0.00 0.00 0.00 0.00 0.00 0.00 0.00 0.00 0.00 0.01 0.00 0.00 0.02
0.00 0.00 0.00 0.00 0.60 0.96 1.15 1.32 0.79 0.37 0.28 0.29 0.25 0.16 0.13 0.13 0.11 0.10 0.07 0.04 0.02 0.01 0.01 0.00 0.00 0.00 0.00 0.00 0.00 0.00 0.00 0.00 0.00 0.00 0.00 0.00 0.01 0.00 0.01 0.00 0.00 0.00
0.00 0.00 0.00 0.06 0.44 1.07 1.09 0.96 0.63 0.19 0.16 0.09 0.08 0.08 0.10 0.10 0.12 0.12 0.09 0.06 0.04 0.02 0.01 0.00 0.00 0.00 0.00 0.00 0.00 0.00 0.00 0.00 0.00 0.00 0.00 0.00 0.00 0.00 0.00 0.01 0.01 0.04
0.00 0.00 0.00 0.19 0.98 1.22 0.79 1.08 0.38 0.43 0.27 0.13 0.10 0.19 0.05 0.09 0.13 0.14 0.12 0.09 0.06 0.03 0.01 0.01 0.01 0.00 0.00 0.00 0.00 0.00 0.00 0.00 0.00 0.00 0.00 0.00 0.00 0.00 0.00 0.01 0.05 0.07
0.00 0.00 0.02 0.97 1.21 1.60 0.99 0.11 0.15 0.07 0.22 0.37 0.26 0.12 0.18 0.13 0.14 0.15 0.13 0.11 0.08 0.06 0.05 0.03 0.02 0.01 0.01 0.00 0.00 0.01 0.01 0.01 0.01 0.01 0.00 0.01 0.01 0.01 0.01 0.00 0.02 0.04
0.00 0.00 0.31 0.77 1.12 0.96 0.38 0.22 0.02 0.14 0.17 0.32 0.17 0.09 0.12 0.06 0.06 0.06 0.06 0.06 0.05 0.05 0.05 0.05 0.04 0.02 0.01 0.01 0.00 0.00 0.00 0.00 0.00 0.01 0.01 0.01 0.01 0.01 0.01 0.01 0.01 0.01
0.01 0.01 0.03 0.77 0.55 0.23 0.11 0.02 0.05 0.19 0.13 0.12 0.12 0.11 0.05 0.03 0.04 0.04 0.08 0.21 0.15 0.15 0.12 0.08 0.05 0.03 0.01 0.01 0.01 0.02 0.01 0.01 0.02 0.01 0.01 0.00 0.01 0.00 0.01 0.01 0.01 0.04
0.00 0.01 0.07 0.01 0.00 0.04 0.01 0.00 0.02 0.10 0.03 0.05 0.05 0.03 0.01 0.01 0.02 0.04 0.03 0.09 0.08 0.03 0.03 0.03 0.05 0.05 0.05 0.04 0.04 0.02 0.02 0.02 0.01 0.01 0.04 0.03 0.05 0.05 0.03 0.03 0.10 0.06
0.00 0.00 0.00 0.01 0.00 0.00 0.00 0.01 0.01 0.03 0.04 0.04 0.03 0.01 0.01 0.00 0.01 0.02 0.04 0.03 0.02 0.02 0.02 0.05 0.06 0.03 0.01 0.01 0.01 0.01 0.02 0.03 0.02 0.02 0.06 0.04 0.05 0.09 0.25 0.22 0.04 0.05
0.00 0.00 0.00 0.00 0.01 0.00 0.00 0.02 0.04 0.05 0.03 0.02 0.01 0.01 0.00 0.00 0.00 0.02 0.03 0.01 0.01 0.06 0.04 0.03 0.05 0.04 0.03 0.02 0.02 0.08 0.07 0.09 0.11 0.09 0.07 0.26 0.14 0.28 0.22 0.05 0.11 0.04
0.00 0.00 0.00 0.00 0.00 0.01 0.02 0.04 0.03 0.01 0.01 0.00 0.01 0.01 0.01 0.01 0.00 0.01 0.02 0.01 0.02 0.04 0.05 0.01 0.03 0.07 0.02 0.01 0.04 0.07 0.09 0.08 0.08 0.08 0.06 0.03 0.03 0.10 0.17 0.08 0.04 0.08

ECMWFNIL_prec_precacc_018.txt.gz
Total_Precipitation_Accumulation
0.00 0.00 0.00 0.00 0.00 0.00 0.00 0.00 0.00 0.00 0.00 0.00 0.00 0.00 0.00 0.00 0.00 0.00 0.00 0.00 0.00 0.00 0.00 0.00 0.00 0.00 0.00 0.00 0.00 0.00 0.00 0.00 0.00 0.01 0.01 0.01 0.01 0.01 0.01 0.00 0.00 0.00
0.00 0.00 0.00 0.00 0.00 0.00 0.00 0.00 0.00 0.00 0.00 0.00 0.00 0.00 0.00 0.00 0.00 0.00 0.00 0.00 0.00 0.00 0.00 0.00 0.00 0.00 0.00 0.00 0.00 0.00 0.00 0.00 0.00 0.00 0.01 0.00 0.01 0.01 0.01 0.00 0.00 0.00
0.00 0.00 0.00 0.00 0.00 0.00 0.00 0.00 0.00 0.00 0.00 0.00 0.00 0.00 0.00 0.00 0.00 0.00 0.00 0.00 0.00 0.00 0.00 0.00 0.00 0.00 0.00 0.00 0.00 0.00 0.00 0.00 0.00 0.00 0.00 0.00 0.01 0.01 0.01 0.01 0.01 0.01
0.00 0.00 0.00 0.00 0.00 0.00 0.00 0.00 0.00 0.00 0.00 0.00 0.00 0.00 0.00 0.00 0.00 0.00 0.00 0.00 0.00 0.00 0.00 0.00 0.00 0.00 0.00 0.00 0.00 0.00 0.00 0.00 0.00 0.00 0.00 0.00 0.01 0.00 0.01 0.01 0.00 0.00
0.00 0.00 0.00 0.00 0.00 0.00 0.00 0.00 0.00 0.00 0.00 0.00 0.00 0.00 0.00 0.00 0.00 0.00 0.00 0.00 0.00 0.00 0.00 0.00 0.00 0.00 0.00 0.00 0.00 0.00 0.00 0.00 0.00 0.00 0.00 0.00 0.00 0.00 0.00 0.00 0.00 0.00
0.00 0.00 0.00 0.00 0.00 0.00 0.00 0.00 0.00 0.00 0.00 0.00 0.00 0.00 0.00 0.00 0.00 0.00 0.00 0.00 0.00 0.00 0.00 0.00 0.00 0.00 0.00 0.00 0.00 0.00 0.00 0.00 0.00 0.00 0.00 0.00 0.00 0.00 0.00 0.00 0.00 0.00
0.00 0.00 0.00 0.00 0.00 0.00 0.00 0.00 0.00 0.00 0.01 0.00 0.01 0.00 0.00 0.00 0.00 0.00 0.00 0.00 0.00 0.00 0.00 0.00 0.00 0.00 0.00 0.00 0.00 0.00 0.00 0.00 0.00 0.00 0.00 0.00 0.00 0.00 0.00 0.00 0.00 0.00
0.00 0.00 0.00 0.00 0.00 0.00 0.01 0.01 0.01 0.00 0.00 0.00 0.00 0.00 0.00 0.00 0.00 0.00 0.00 0.00 0.00 0.00 0.00 0.00 0.00 0.00 0.00 0.00 0.00 0.00 0.00 0.00 0.00 0.00 0.00 0.00 0.00 0.00 0.00 0.00 0.00 0.00
0.00 0.00 0.00 0.00 0.00 0.00 0.01 0.01 0.00 0.01 0.00 0.00 0.00 0.00 0.00 0.00 0.00 0.00 0.00 0.00 0.00 0.00 0.00 0.00 0.01 0.01 0.00 0.00 0.00 0.00 0.00 0.00 0.00 0.00 0.00 0.00 0.00 0.00 0.00 0.00 0.00 0.00
0.00 0.00 0.00 0.00 0.00 0.02 0.03 0.10 0.04 0.01 0.01 0.00 0.00 0.00 0.00 0.00 0.00 0.00 0.00 0.00 0.01 0.02 0.03 0.03 0.02 0.02 0.02 0.00 0.00 0.00 0.00 0.00 0.00 0.00 0.00 0.00 0.00 0.00 0.00 0.00 0.00 0.00
0.07 0.03 0.00 0.01 0.03 0.08 0.05 0.05 0.04 0.05 0.03 0.01 0.00 0.01 0.03 0.06 0.04 0.04 0.08 0.11 0.12 0.09 0.07 0.06 0.04 0.02 0.00 0.00 0.00 0.00 0.00 0.00 0.00 0.00 0.00 0.00 0.00 0.00 0.00 0.00 0.00 0.00
0.03 0.01 0.01 0.02 0.05 0.03 0.06 0.02 0.01 0.00 0.00 0.01 0.02 0.05 0.06 0.07 0.10 0.16 0.19 0.18 0.14 0.11 0.08 0.06 0.02 0.00 0.00 0.00 0.00 0.00 0.00 0.00 0.00 0.00 0.00 0.00 0.00 0.00 0.00 0.00 0.00 0.00
0.04 0.02 0.03 0.05 0.03 0.05 0.16 0.22 0.12 0.01 0.02 0.03 0.04 0.11 0.22 0.20 0.24 0.23 0.20 0.17 0.13 0.10 0.05 0.01 0.00 0.00 0.00 0.00 0.00 0.00 0.00 0.00 0.00 0.00 0.00 0.00 0.00 0.00 0.00 0.00 0.00 0.01
0.00 0.05 0.23 0.15 0.22 0.17 0.21 0.13 0.23 0.14 0.12 0.15 0.29 0.30 0.29 0.31 0.28 0.26 0.22 0.15 0.07 0.02 0.00 0.01 0.00 0.00 0.00 0.00 0.00 0.00 0.00 0.00 0.00 0.00 0.00 0.00 0.01 0.01 0.00 0.00 0.00 0.00
0.00 0.03 0.16 0.38 0.12 0.41 0.32 0.21 0.35 0.30 0.35 0.37 0.26 0.38 0.41 0.33 0.22 0.14 0.07 0.04 0.02 0.01 0.00 0.00 0.00 0.00 0.00 0.00 0.00 0.00 0.00 0.00 0.00 0.00 0.00 0.00 0.01 0.03 0.01 0.01 0.00 0.01
0.00 0.00 0.04 0.16 0.15 1.40 1.81 0.56 0.60 0.69 0.67 0.53 0.36 0.35 0.25 0.16 0.11 0.07 0.05 0.03 0.01 0.01 0.01 0.00 0.00 0.00 0.00 0.00 0.00 0.00 0.00 0.00 0.00 0.00 0.00 0.00 0.00 0.00 0.01 0.00 0.00 0.02
0.00 0.00 0.00 0.00 0.60 0.96 1.15 1.32 0.79 0.37 0.28 0.29 0.25 0.16 0.13 0.13 0.11 0.10 0.07 0.04 0.02 0.01 0.01 0.00 0.00 0.00 0.00 0.00 0.00 0.00 0.00 0.00 0.00 0.00 0.00 0.00 0.01 0.00 0.01 0.00 0.00 0.00
0.00 0.00 0.00 0.06 0.44 1.07 1.09 0.96 0.63 0.19 0.16 0.09 0.08 0.08 0.10 0.10 0.12 0.12 0.09 0.06 0.04 0.02 0.01 0.00 0.00 0.00 0.00 0.00 0.00 0.00 0.00 0.00 0.00 0.00 0.00 0.00 0.00 0.00 0.00 0.01 0.01 0.04
0.00 0.00 0.00 0.19 0.98 1.22 0.79 1.08 0.38 0.43 0.27 0.13 0.10 0.19 0.05 0.09 0.13 0.14 0.12 0.09 0.06 0.03 0.01 0.01 0.01 0.00 0.00 0.00 0.00 0.00 0.00 0.00 0.00 0.00 0.00 0.00 0.00 0.00 0.00 0.01 0.05 0.07
0.00 0.00 0.02 0.97 1.21 1.60 0.99 0.11 0.15 0.07 0.22 0.37 0.26 0.12 0.18 0.13 0.14 0.15 0.13 0.11 0.08 0.06 0.05 0.03 0.02 0.01 0.01 0.00 0.00 0.01 0.01 0.01 0.01 0.01 0.00 0.01 0.01 0.01 0.01 0.00 0.02 0.04
0.00 0.00 0.31 0.77 1.12 0.96 0.38 0.22 0.02 0.14 0.17 0.32 0.17 0.09 0.12 0.06 0.06 0.06 0.06 0.06 0.05 0.05 0.05 0.05 0.04 0.02 0.01 0.01 0.00 0.00 0.00 0.00 0.00 0.01 0.02 0.02 0.01 0.01 0.01 0.01 0.01 0.01
0.01 0.01 0.03 0.77 0.55 0.23 0.11 0.02 0.05 0.19 0.13 0.12 0.12 0.11 0.05 0.03 0.04 0.04 0.08 0.21 0.15 0.15 0.12 0.08 0.05 0.03 0.01 0.01 0.01 0.02 0.01 0.01 0.02 0.01 0.01 0.00 0.01 0.00 0.01 0.01 0.01 0.04
0.00 0.01 0.07 0.01 0.00 0.04 0.01 0.00 0.02 0.10 0.03 0.05 0.05 0.03 0.01 0.01 0.02 0.04 0.03 0.09 0.08 0.03 0.03 0.03 0.05 0.05 0.05 0.04 0.04 0.02 0.02 0.02 0.01 0.01 0.04 0.03 0.05 0.05 0.03 0.03 0.10 0.06
0.00 0.00 0.00 0.01 0.00 0.00 0.00 0.01 0.01 0.03 0.04 0.04 0.03 0.01 0.01 0.00 0.01 0.02 0.04 0.03 0.02 0.02 0.02 0.05 0.06 0.03 0.01 0.01 0.01 0.01 0.02 0.03 0.02 0.02 0.06 0.04 0.05 0.09 0.25 0.22 0.04 0.05
0.00 0.00 0.00 0.00 0.01 0.00 0.00 0.02 0.04 0.05 0.03 0.02 0.01 0.01 0.00 0.00 0.00 0.02 0.03 0.01 0.01 0.06 0.04 0.03 0.05 0.04 0.03 0.02 0.02 0.08 0.07 0.09 0.11 0.09 0.07 0.26 0.14 0.28 0.22 0.05 0.11 0.04
0.00 0.00 0.00 0.00 0.00 0.01 0.02 0.04 0.03 0.01 0.01 0.00 0.01 0.01 0.01 0.01 0.00 0.01 0.02 0.01 0.02 0.04 0.05 0.01 0.03 0.07 0.02 0.01 0.04 0.07 0.09 0.08 0.08 0.08 0.06 0.03 0.03 0.10 0.17 0.08 0.04 0.08

ECMWFNIL_prec_precacc_021.txt.gz
Total_Precipitation_Accumulation
0.00 0.00 0.00 0.00 0.00 0.00 0.00 0.00 0.00 0.00 0.00 0.00 0.00 0.00 0.00 0.00 0.00 0.00 0.00 0.00 0.00 0.00 0.00 0.00 0.00 0.00 0.00 0.00 0.00 0.00 0.00 0.00 0.00 0.01 0.01 0.01 0.01 0.01 0.01 0.00 0.00 0.00
0.00 0.00 0.00 0.00 0.00 0.00 0.00 0.00 0.00 0.00 0.00 0.00 0.00 0.00 0.00 0.00 0.00 0.00 0.00 0.00 0.00 0.00 0.00 0.00 0.00 0.00 0.00 0.00 0.00 0.00 0.00 0.00 0.00 0.00 0.01 0.00 0.01 0.01 0.01 0.00 0.00 0.00
0.00 0.00 0.00 0.00 0.00 0.00 0.00 0.00 0.00 0.00 0.00 0.00 0.00 0.00 0.00 0.00 0.00 0.00 0.00 0.00 0.00 0.00 0.00 0.00 0.00 0.00 0.00 0.00 0.00 0.00 0.00 0.00 0.00 0.00 0.00 0.00 0.01 0.01 0.01 0.01 0.01 0.01
0.00 0.00 0.00 0.00 0.00 0.00 0.00 0.00 0.00 0.00 0.00 0.00 0.00 0.00 0.00 0.00 0.00 0.00 0.00 0.00 0.00 0.00 0.00 0.00 0.00 0.00 0.00 0.00 0.00 0.00 0.00 0.00 0.00 0.00 0.00 0.00 0.01 0.00 0.01 0.01 0.00 0.00
0.00 0.00 0.00 0.00 0.00 0.00 0.00 0.00 0.00 0.00 0.00 0.00 0.00 0.00 0.00 0.00 0.00 0.00 0.00 0.00 0.00 0.00 0.00 0.00 0.00 0.00 0.00 0.00 0.00 0.00 0.00 0.00 0.00 0.00 0.00 0.00 0.00 0.00 0.00 0.00 0.00 0.00
0.00 0.00 0.00 0.00 0.00 0.00 0.00 0.00 0.00 0.00 0.00 0.00 0.00 0.00 0.00 0.00 0.00 0.00 0.00 0.00 0.00 0.00 0.00 0.00 0.00 0.00 0.00 0.00 0.00 0.00 0.00 0.00 0.00 0.00 0.00 0.00 0.00 0.00 0.00 0.00 0.00 0.00
0.00 0.00 0.00 0.00 0.00 0.00 0.00 0.00 0.00 0.00 0.01 0.00 0.01 0.00 0.00 0.00 0.00 0.00 0.00 0.00 0.00 0.00 0.00 0.00 0.00 0.00 0.00 0.00 0.00 0.00 0.00 0.00 0.00 0.00 0.00 0.00 0.00 0.00 0.00 0.00 0.00 0.00
0.00 0.00 0.00 0.00 0.00 0.00 0.01 0.01 0.01 0.00 0.00 0.00 0.00 0.00 0.00 0.00 0.00 0.00 0.00 0.00 0.00 0.00 0.00 0.00 0.00 0.00 0.00 0.00 0.00 0.00 0.00 0.00 0.00 0.00 0.00 0.00 0.00 0.00 0.00 0.00 0.00 0.00
0.00 0.00 0.00 0.00 0.00 0.00 0.01 0.01 0.00 0.01 0.00 0.00 0.00 0.00 0.00 0.00 0.00 0.00 0.00 0.00 0.00 0.00 0.00 0.00 0.01 0.01 0.00 0.00 0.00 0.00 0.00 0.00 0.00 0.00 0.00 0.00 0.00 0.00 0.00 0.00 0.00 0.00
0.00 0.00 0.00 0.00 0.00 0.02 0.03 0.10 0.04 0.01 0.01 0.00 0.00 0.00 0.00 0.00 0.00 0.00 0.00 0.00 0.01 0.02 0.03 0.03 0.02 0.02 0.02 0.00 0.00 0.00 0.00 0.00 0.00 0.00 0.00 0.00 0.00 0.00 0.00 0.00 0.00 0.00
0.07 0.03 0.00 0.01 0.03 0.08 0.05 0.05 0.04 0.05 0.03 0.01 0.00 0.01 0.03 0.06 0.04 0.04 0.08 0.11 0.12 0.09 0.07 0.06 0.04 0.02 0.00 0.00 0.00 0.00 0.00 0.00 0.00 0.00 0.00 0.00 0.00 0.00 0.00 0.00 0.00 0.00
0.03 0.01 0.01 0.02 0.05 0.03 0.06 0.02 0.01 0.00 0.00 0.01 0.02 0.05 0.06 0.07 0.10 0.16 0.19 0.18 0.14 0.11 0.08 0.06 0.02 0.00 0.00 0.00 0.00 0.00 0.00 0.00 0.00 0.00 0.00 0.00 0.00 0.00 0.00 0.00 0.00 0.00
0.04 0.02 0.03 0.05 0.03 0.05 0.16 0.22 0.12 0.01 0.02 0.03 0.04 0.11 0.22 0.20 0.24 0.23 0.20 0.17 0.13 0.10 0.05 0.01 0.00 0.00 0.00 0.00 0.00 0.00 0.00 0.00 0.00 0.00 0.00 0.00 0.00 0.00 0.00 0.00 0.00 0.01
0.00 0.05 0.23 0.15 0.22 0.17 0.21 0.13 0.23 0.14 0.12 0.15 0.29 0.30 0.29 0.31 0.28 0.26 0.22 0.15 0.07 0.02 0.00 0.01 0.00 0.00 0.00 0.00 0.00 0.00 0.00 0.00 0.00 0.00 0.00 0.00 0.01 0.01 0.00 0.00 0.00 0.00
0.00 0.03 0.16 0.38 0.12 0.41 0.32 0.21 0.35 0.30 0.35 0.37 0.26 0.38 0.41 0.33 0.22 0.14 0.07 0.04 0.02 0.01 0.00 0.00 0.00 0.00 0.00 0.00 0.00 0.00 0.00 0.00 0.00 0.00 0.00 0.00 0.01 0.03 0.01 0.01 0.00 0.01
0.00 0.00 0.04 0.16 0.15 1.40 1.81 0.56 0.60 0.69 0.67 0.53 0.36 0.35 0.25 0.16 0.11 0.07 0.05 0.03 0.01 0.01 0.01 0.00 0.00 0.00 0.00 0.00 0.00 0.00 0.00 0.00 0.00 0.00 0.00 0.00 0.00 0.00 0.01 0.00 0.00 0.02
0.00 0.00 0.00 0.00 0.60 0.96 1.15 1.32 0.79 0.37 0.28 0.29 0.25 0.16 0.13 0.13 0.11 0.10 0.07 0.04 0.02 0.01 0.01 0.00 0.00 0.00 0.00 0.00 0.00 0.00 0.00 0.00 0.00 0.00 0.00 0.00 0.01 0.00 0.01 0.00 0.00 0.00
0.00 0.00 0.00 0.06 0.44 1.07 1.09 0.96 0.63 0.19 0.16 0.09 0.08 0.08 0.10 0.10 0.12 0.12 0.09 0.06 0.04 0.02 0.01 0.00 0.00 0.00 0.00 0.00 0.00 0.00 0.00 0.00 0.00 0.00 0.00 0.00 0.00 0.00 0.00 0.01 0.01 0.04
0.00 0.00 0.00 0.19 0.98 1.22 0.79 1.08 0.38 0.43 0.27 0.13 0.10 0.19 0.05 0.09 0.13 0.14 0.12 0.09 0.06 0.03 0.01 0.01 0.01 0.00 0.00 0.00 0.00 0.00 0.00 0.00 0.00 0.00 0.00 0.00 0.00 0.00 0.00 0.01 0.06 0.08
0.00 0.00 0.02 0.97 1.21 1.60 0.99 0.11 0.15 0.07 0.22 0.37 0.26 0.12 0.18 0.13 0.14 0.15 0.13 0.11 0.08 0.06 0.05 0.03 0.02 0.01 0.01 0.00 0.00 0.01 0.01 0.01 0.01 0.01 0.00 0.01 0.01 0.02 0.01 0.00 0.02 0.04
0.00 0.00 0.31 0.77 1.12 0.96 0.38 0.22 0.02 0.14 0.17 0.32 0.17 0.09 0.12 0.06 0.06 0.06 0.06 0.06 0.05 0.05 0.05 0.05 0.04 0.02 0.01 0.01 0.00 0.00 0.00 0.00 0.00 0.01 0.02 0.02 0.02 0.02 0.02 0.02 0.04 0.01
0.01 0.01 0.03 0.77 0.55 0.23 0.11 0.02 0.05 0.19 0.13 0.12 0.12 0.11 0.05 0.03 0.04 0.04 0.08 0.21 0.15 0.15 0.12 0.08 0.05 0.03 0.01 0.01 0.01 0.02 0.01 0.01 0.02 0.01 0.02 0.01 0.02 0.01 0.02 0.07 0.01 0.06
0.00 0.01 0.07 0.01 0.00 0.04 0.01 0.00 0.02 0.10 0.03 0.05 0.05 0.03 0.01 0.01 0.02 0.04 0.03 0.09 0.08 0.03 0.03 0.03 0.05 0.05 0.05 0.04 0.04 0.02 0.02 0.02 0.01 0.01 0.04 0.03 0.05 0.07 0.04 0.06 0.10 0.06
0.00 0.00 0.00 0.01 0.00 0.00 0.00 0.01 0.01 0.03 0.04 0.04 0.03 0.01 0.01 0.00 0.01 0.02 0.04 0.03 0.02 0.02 0.02 0.05 0.06 0.03 0.01 0.01 0.01 0.01 0.02 0.03 0.02 0.03 0.06 0.06 0.07 0.30 0.27 0.23 0.05 0.05
0.00 0.00 0.00 0.00 0.01 0.00 0.00 0.02 0.04 0.05 0.03 0.02 0.01 0.01 0.00 0.00 0.00 0.02 0.03 0.01 0.01 0.06 0.04 0.03 0.05 0.04 0.03 0.02 0.02 0.08 0.07 0.10 0.13 0.10 0.08 0.27 0.15 0.28 0.23 0.07 0.12 0.05
0.00 0.00 0.00 0.00 0.00 0.01 0.02 0.04 0.03 0.01 0.01 0.00 0.01 0.01 0.01 0.01 0.00 0.01 0.02 0.01 0.02 0.04 0.05 0.01 0.03 0.07 0.02 0.01 0.04 0.07 0.09 0.09 0.10 0.08 0.08 0.05 0.04 0.11 0.18 0.14 0.05 0.09

ECMWFNIL_prec_precacc_024.txt.gz
Total_Precipitation_Accumulation
0.00 0.00 0.00 0.00 0.00 0.00 0.00 0.00 0.00 0.00 0.00 0.00 0.00 0.00 0.00 0.00 0.00 0.00 0.00 0.00 0.00 0.00 0.00 0.00 0.00 0.00 0.00 0.00 0.00 0.00 0.00 0.00 0.00 0.01 0.01 0.01 0.01 0.01 0.01 0.00 0.00 0.00
0.00 0.00 0.00 0.00 0.00 0.00 0.00 0.00 0.00 0.00 0.00 0.00 0.00 0.00 0.00 0.00 0.00 0.00 0.00 0.00 0.00 0.00 0.00 0.00 0.00 0.00 0.00 0.00 0.00 0.00 0.00 0.00 0.00 0.00 0.01 0.00 0.01 0.01 0.01 0.00 0.00 0.00
0.00 0.00 0.00 0.00 0.00 0.00 0.00 0.00 0.00 0.00 0.00 0.00 0.00 0.00 0.00 0.00 0.00 0.00 0.00 0.00 0.00 0.00 0.00 0.00 0.00 0.00 0.00 0.00 0.00 0.00 0.00 0.00 0.00 0.00 0.00 0.00 0.01 0.01 0.01 0.01 0.01 0.01
0.00 0.00 0.00 0.00 0.00 0.00 0.00 0.00 0.00 0.00 0.00 0.00 0.00 0.00 0.00 0.00 0.00 0.00 0.00 0.00 0.00 0.00 0.00 0.00 0.00 0.00 0.00 0.00 0.00 0.00 0.00 0.00 0.00 0.00 0.00 0.00 0.01 0.00 0.01 0.01 0.00 0.00
0.00 0.00 0.00 0.00 0.00 0.00 0.00 0.00 0.00 0.00 0.00 0.00 0.00 0.00 0.00 0.00 0.00 0.00 0.00 0.00 0.00 0.00 0.00 0.00 0.00 0.00 0.00 0.00 0.00 0.00 0.00 0.00 0.00 0.00 0.00 0.00 0.00 0.00 0.00 0.00 0.00 0.00
0.00 0.00 0.00 0.00 0.00 0.00 0.00 0.00 0.00 0.00 0.00 0.00 0.00 0.00 0.00 0.00 0.00 0.00 0.00 0.00 0.00 0.00 0.00 0.00 0.00 0.00 0.00 0.00 0.00 0.00 0.00 0.00 0.00 0.00 0.00 0.00 0.00 0.00 0.00 0.00 0.00 0.00
0.00 0.00 0.00 0.00 0.00 0.00 0.00 0.00 0.00 0.00 0.01 0.00 0.01 0.00 0.00 0.00 0.00 0.00 0.00 0.00 0.00 0.00 0.00 0.00 0.00 0.00 0.00 0.00 0.00 0.00 0.00 0.00 0.00 0.00 0.00 0.00 0.00 0.00 0.00 0.00 0.00 0.00
0.00 0.00 0.00 0.00 0.00 0.00 0.01 0.01 0.01 0.00 0.00 0.00 0.00 0.00 0.00 0.00 0.00 0.00 0.00 0.00 0.00 0.00 0.00 0.00 0.00 0.00 0.00 0.00 0.00 0.00 0.00 0.00 0.00 0.00 0.00 0.00 0.00 0.00 0.00 0.00 0.00 0.00
0.00 0.00 0.00 0.00 0.00 0.00 0.01 0.01 0.00 0.01 0.00 0.00 0.00 0.00 0.00 0.00 0.00 0.00 0.00 0.00 0.00 0.00 0.00 0.00 0.01 0.01 0.00 0.00 0.00 0.00 0.00 0.00 0.00 0.00 0.00 0.00 0.00 0.00 0.00 0.00 0.00 0.00
0.00 0.00 0.00 0.00 0.00 0.02 0.03 0.10 0.04 0.01 0.01 0.00 0.00 0.00 0.00 0.00 0.00 0.00 0.00 0.00 0.01 0.02 0.03 0.03 0.02 0.02 0.02 0.00 0.00 0.00 0.00 0.00 0.00 0.00 0.00 0.00 0.00 0.00 0.00 0.00 0.00 0.00
0.07 0.03 0.00 0.01 0.03 0.08 0.05 0.05 0.04 0.05 0.03 0.01 0.00 0.01 0.03 0.06 0.04 0.04 0.08 0.11 0.12 0.09 0.07 0.06 0.04 0.02 0.00 0.00 0.00 0.00 0.00 0.00 0.00 0.00 0.00 0.00 0.00 0.00 0.00 0.00 0.00 0.00
0.03 0.01 0.01 0.02 0.05 0.03 0.06 0.02 0.01 0.00 0.00 0.01 0.02 0.05 0.06 0.07 0.10 0.16 0.19 0.18 0.14 0.11 0.08 0.06 0.02 0.00 0.00 0.00 0.00 0.00 0.00 0.00 0.00 0.00 0.00 0.00 0.00 0.00 0.00 0.00 0.00 0.00
0.04 0.02 0.03 0.05 0.03 0.05 0.16 0.22 0.12 0.01 0.02 0.03 0.04 0.11 0.22 0.20 0.24 0.23 0.20 0.17 0.13 0.10 0.05 0.01 0.00 0.00 0.00 0.00 0.00 0.00 0.00 0.00 0.00 0.00 0.00 0.00 0.00 0.00 0.00 0.00 0.00 0.01
0.00 0.05 0.23 0.15 0.22 0.17 0.21 0.13 0.23 0.14 0.12 0.15 0.29 0.30 0.29 0.31 0.28 0.26 0.22 0.15 0.07 0.02 0.00 0.01 0.00 0.00 0.00 0.00 0.00 0.00 0.00 0.00 0.00 0.00 0.00 0.00 0.01 0.01 0.00 0.00 0.00 0.00
0.00 0.03 0.16 0.38 0.12 0.41 0.32 0.21 0.35 0.30 0.35 0.37 0.26 0.38 0.41 0.33 0.22 0.14 0.07 0.04 0.02 0.01 0.00 0.00 0.00 0.00 0.00 0.00 0.00 0.00 0.00 0.00 0.00 0.00 0.00 0.00 0.01 0.03 0.01 0.01 0.00 0.01
0.00 0.00 0.04 0.16 0.15 1.40 1.81 0.56 0.60 0.69 0.67 0.53 0.36 0.35 0.25 0.16 0.11 0.07 0.05 0.03 0.01 0.01 0.01 0.00 0.00 0.00 0.00 0.00 0.00 0.00 0.00 0.00 0.00 0.00 0.00 0.00 0.00 0.00 0.01 0.00 0.00 0.02
0.00 0.00 0.00 0.00 0.60 0.96 1.15 1.32 0.79 0.37 0.28 0.29 0.25 0.16 0.13 0.13 0.11 0.10 0.07 0.04 0.02 0.01 0.01 0.00 0.00 0.00 0.00 0.00 0.00 0.00 0.00 0.00 0.00 0.00 0.00 0.00 0.01 0.00 0.01 0.00 0.00 0.00
0.00 0.00 0.00 0.06 0.44 1.07 1.09 0.96 0.63 0.19 0.16 0.09 0.08 0.08 0.10 0.10 0.12 0.12 0.09 0.06 0.04 0.02 0.01 0.00 0.00 0.00 0.00 0.00 0.00 0.00 0.00 0.00 0.00 0.00 0.00 0.00 0.00 0.00 0.00 0.01 0.01 0.04
0.00 0.00 0.00 0.19 0.98 1.22 0.79 1.08 0.38 0.43 0.27 0.13 0.10 0.19 0.05 0.09 0.13 0.14 0.12 0.09 0.06 0.03 0.01 0.01 0.01 0.00 0.00 0.00 0.00 0.00 0.00 0.00 0.00 0.00 0.00 0.00 0.00 0.00 0.00 0.01 0.06 0.08
0.00 0.00 0.02 0.97 1.21 1.60 0.99 0.11 0.15 0.07 0.22 0.37 0.26 0.12 0.18 0.13 0.14 0.15 0.13 0.11 0.08 0.06 0.05 0.03 0.02 0.01 0.01 0.00 0.00 0.01 0.01 0.01 0.01 0.01 0.00 0.01 0.01 0.02 0.01 0.00 0.02 0.05
0.00 0.00 0.31 0.77 1.12 0.96 0.38 0.22 0.02 0.14 0.17 0.32 0.17 0.09 0.12 0.06 0.06 0.06 0.06 0.06 0.05 0.05 0.05 0.05 0.04 0.02 0.01 0.01 0.00 0.00 0.00 0.00 0.00 0.01 0.02 0.02 0.02 0.02 0.02 0.02 0.14 0.47
0.01 0.01 0.03 0.77 0.55 0.23 0.11 0.02 0.05 0.19 0.13 0.12 0.12 0.11 0.05 0.03 0.04 0.04 0.08 0.21 0.15 0.15 0.12 0.08 0.05 0.03 0.01 0.01 0.01 0.02 0.01 0.01 0.02 0.01 0.02 0.01 0.02 0.01 0.02 0.07 0.12 0.37
0.00 0.01 0.07 0.01 0.00 0.04 0.01 0.00 0.02 0.10 0.03 0.05 0.05 0.03 0.01 0.01 0.02 0.04 0.03 0.09 0.08 0.03 0.03 0.03 0.05 0.05 0.05 0.04 0.04 0.02 0.02 0.02 0.01 0.01 0.04 0.03 0.05 0.08 0.04 0.12 0.24 0.20
0.00 0.00 0.00 0.01 0.00 0.00 0.00 0.01 0.01 0.03 0.04 0.04 0.03 0.01 0.01 0.00 0.01 0.02 0.04 0.03 0.02 0.02 0.02 0.05 0.06 0.03 0.01 0.01 0.01 0.01 0.02 0.03 0.02 0.03 0.07 0.06 0.08 0.30 0.30 0.25 0.05 0.05
0.00 0.00 0.00 0.00 0.01 0.00 0.00 0.02 0.04 0.05 0.03 0.02 0.01 0.01 0.00 0.00 0.00 0.02 0.03 0.01 0.01 0.06 0.04 0.03 0.05 0.04 0.03 0.02 0.02 0.08 0.07 0.10 0.13 0.10 0.09 0.27 0.16 0.29 0.23 0.07 0.12 0.06
0.00 0.00 0.00 0.00 0.00 0.01 0.02 0.04 0.03 0.01 0.01 0.00 0.01 0.01 0.01 0.01 0.00 0.01 0.02 0.01 0.02 0.04 0.05 0.01 0.03 0.07 0.02 0.01 0.04 0.07 0.09 0.09 0.10 0.08 0.08 0.05 0.05 0.11 0.18 0.16 0.05 0.09

ECMWFNIL_prec_precacc_027.txt.gz
Total_Precipitation_Accumulation
0.00 0.00 0.00 0.00 0.00 0.00 0.00 0.00 0.00 0.00 0.00 0.00 0.00 0.00 0.00 0.00 0.00 0.00 0.00 0.00 0.00 0.00 0.00 0.00 0.00 0.00 0.00 0.00 0.00 0.00 0.00 0.00 0.00 0.01 0.01 0.01 0.01 0.01 0.01 0.00 0.00 0.00
0.00 0.00 0.00 0.00 0.00 0.00 0.00 0.00 0.00 0.00 0.00 0.00 0.00 0.00 0.00 0.00 0.00 0.00 0.00 0.00 0.00 0.00 0.00 0.00 0.00 0.00 0.00 0.00 0.00 0.00 0.00 0.00 0.00 0.00 0.01 0.00 0.01 0.01 0.01 0.00 0.00 0.00
0.00 0.00 0.00 0.00 0.00 0.00 0.00 0.00 0.00 0.00 0.00 0.00 0.00 0.00 0.00 0.00 0.00 0.00 0.00 0.00 0.00 0.00 0.00 0.00 0.00 0.00 0.00 0.00 0.00 0.00 0.00 0.00 0.00 0.00 0.00 0.00 0.01 0.01 0.01 0.01 0.01 0.01
0.00 0.00 0.00 0.00 0.00 0.00 0.00 0.00 0.00 0.00 0.00 0.00 0.00 0.00 0.00 0.00 0.00 0.00 0.00 0.00 0.00 0.00 0.00 0.00 0.00 0.00 0.00 0.00 0.00 0.00 0.00 0.00 0.00 0.00 0.00 0.00 0.01 0.00 0.01 0.01 0.00 0.00
0.00 0.00 0.00 0.00 0.00 0.00 0.00 0.00 0.00 0.00 0.00 0.00 0.00 0.00 0.00 0.00 0.00 0.00 0.00 0.00 0.00 0.00 0.00 0.00 0.00 0.00 0.00 0.00 0.00 0.00 0.00 0.00 0.00 0.00 0.00 0.00 0.00 0.00 0.00 0.00 0.00 0.00
0.00 0.00 0.00 0.00 0.00 0.00 0.00 0.00 0.00 0.00 0.00 0.00 0.00 0.00 0.00 0.00 0.00 0.00 0.00 0.00 0.00 0.00 0.00 0.00 0.00 0.00 0.00 0.00 0.00 0.00 0.00 0.00 0.00 0.00 0.00 0.00 0.00 0.00 0.00 0.00 0.00 0.00
0.00 0.00 0.00 0.00 0.00 0.00 0.00 0.00 0.00 0.00 0.01 0.00 0.01 0.00 0.00 0.00 0.00 0.00 0.00 0.00 0.00 0.00 0.00 0.00 0.00 0.00 0.00 0.00 0.00 0.00 0.00 0.00 0.00 0.00 0.00 0.00 0.00 0.00 0.00 0.00 0.00 0.00
0.00 0.00 0.00 0.00 0.00 0.00 0.01 0.01 0.01 0.00 0.00 0.00 0.00 0.00 0.00 0.00 0.00 0.00 0.00 0.00 0.00 0.00 0.00 0.00 0.00 0.00 0.00 0.00 0.00 0.00 0.00 0.00 0.00 0.00 0.00 0.00 0.00 0.00 0.00 0.00 0.00 0.00
0.00 0.00 0.00 0.00 0.00 0.00 0.01 0.01 0.00 0.01 0.00 0.00 0.00 0.00 0.00 0.00 0.00 0.00 0.00 0.00 0.00 0.00 0.00 0.00 0.01 0.01 0.00 0.00 0.00 0.00 0.00 0.00 0.00 0.00 0.00 0.00 0.00 0.00 0.00 0.00 0.00 0.00
0.00 0.00 0.00 0.00 0.00 0.02 0.03 0.10 0.04 0.01 0.01 0.00 0.00 0.00 0.00 0.00 0.00 0.00 0.00 0.00 0.01 0.02 0.03 0.03 0.02 0.02 0.02 0.00 0.00 0.00 0.00 0.00 0.00 0.00 0.00 0.00 0.00 0.00 0.00 0.00 0.00 0.00
0.07 0.03 0.00 0.01 0.03 0.08 0.05 0.05 0.04 0.05 0.03 0.01 0.00 0.01 0.03 0.06 0.04 0.04 0.08 0.11 0.12 0.09 0.07 0.06 0.04 0.02 0.00 0.00 0.00 0.00 0.00 0.00 0.00 0.00 0.00 0.00 0.00 0.00 0.00 0.00 0.00 0.00
0.03 0.01 0.01 0.02 0.05 0.03 0.06 0.02 0.01 0.00 0.00 0.01 0.02 0.05 0.06 0.07 0.10 0.16 0.19 0.18 0.14 0.11 0.08 0.06 0.02 0.00 0.00 0.00 0.00 0.00 0.00 0.00 0.00 0.00 0.00 0.00 0.00 0.00 0.00 0.00 0.00 0.00
0.04 0.02 0.03 0.05 0.03 0.05 0.16 0.22 0.12 0.01 0.02 0.03 0.04 0.11 0.22 0.20 0.24 0.23 0.20 0.17 0.13 0.10 0.05 0.01 0.00 0.00 0.00 0.00 0.00 0.00 0.00 0.00 0.00 0.00 0.00 0.00 0.00 0.00 0.00 0.00 0.00 0.01
0.00 0.05 0.23 0.15 0.22 0.17 0.21 0.13 0.23 0.14 0.12 0.15 0.29 0.30 0.29 0.31 0.28 0.26 0.22 0.15 0.07 0.02 0.00 0.01 0.00 0.00 0.00 0.00 0.00 0.00 0.00 0.00 0.00 0.00 0.00 0.00 0.01 0.01 0.00 0.00 0.00 0.00
0.00 0.03 0.16 0.38 0.12 0.41 0.32 0.21 0.35 0.30 0.35 0.37 0.26 0.38 0.41 0.33 0.22 0.14 0.07 0.04 0.02 0.01 0.00 0.00 0.00 0.00 0.00 0.00 0.00 0.00 0.00 0.00 0.00 0.00 0.00 0.00 0.01 0.03 0.01 0.01 0.00 0.01
0.00 0.00 0.04 0.16 0.15 1.40 1.81 0.56 0.60 0.69 0.67 0.53 0.36 0.35 0.25 0.16 0.11 0.07 0.05 0.03 0.01 0.01 0.01 0.00 0.00 0.00 0.00 0.00 0.00 0.00 0.00 0.00 0.00 0.00 0.00 0.00 0.00 0.00 0.01 0.00 0.00 0.02
0.00 0.00 0.00 0.00 0.60 0.96 1.15 1.32 0.79 0.37 0.28 0.29 0.25 0.16 0.13 0.13 0.11 0.10 0.07 0.04 0.02 0.01 0.01 0.00 0.00 0.00 0.00 0.00 0.00 0.00 0.00 0.00 0.00 0.00 0.00 0.00 0.01 0.00 0.01 0.00 0.00 0.00
0.00 0.00 0.00 0.06 0.44 1.07 1.09 0.96 0.63 0.19 0.16 0.09 0.08 0.08 0.10 0.10 0.12 0.12 0.09 0.06 0.04 0.02 0.01 0.00 0.00 0.00 0.00 0.00 0.00 0.00 0.00 0.00 0.00 0.00 0.00 0.00 0.00 0.00 0.00 0.01 0.01 0.04
0.00 0.00 0.00 0.19 0.98 1.22 0.79 1.08 0.38 0.43 0.27 0.13 0.10 0.19 0.05 0.09 0.13 0.14 0.12 0.09 0.06 0.03 0.01 0.01 0.01 0.00 0.00 0.00 0.00 0.00 0.00 0.00 0.00 0.00 0.00 0.00 0.00 0.00 0.00 0.01 0.06 0.08
0.00 0.00 0.02 0.97 1.21 1.60 0.99 0.11 0.15 0.07 0.22 0.37 0.26 0.12 0.18 0.13 0.14 0.15 0.13 0.11 0.08 0.06 0.05 0.03 0.02 0.01 0.01 0.00 0.00 0.01 0.01 0.01 0.01 0.01 0.00 0.01 0.01 0.02 0.01 0.00 0.02 0.05
0.00 0.00 0.31 0.77 1.12 0.96 0.38 0.22 0.02 0.14 0.17 0.32 0.17 0.09 0.12 0.06 0.06 0.06 0.06 0.06 0.05 0.05 0.05 0.05 0.04 0.02 0.01 0.01 0.00 0.00 0.00 0.00 0.00 0.01 0.02 0.02 0.02 0.02 0.02 0.02 0.14 0.47
0.01 0.01 0.03 0.77 0.55 0.23 0.11 0.02 0.05 0.19 0.13 0.12 0.12 0.11 0.05 0.03 0.04 0.04 0.08 0.21 0.15 0.15 0.12 0.08 0.05 0.03 0.01 0.01 0.01 0.02 0.01 0.01 0.02 0.01 0.02 0.01 0.02 0.01 0.02 0.07 0.12 0.37
0.00 0.01 0.07 0.01 0.00 0.04 0.01 0.00 0.02 0.10 0.03 0.05 0.05 0.03 0.01 0.01 0.02 0.04 0.03 0.09 0.08 0.03 0.03 0.03 0.05 0.05 0.05 0.04 0.04 0.02 0.02 0.02 0.01 0.01 0.04 0.03 0.05 0.08 0.04 0.12 0.24 0.20
0.00 0.00 0.00 0.01 0.00 0.00 0.00 0.01 0.01 0.03 0.04 0.04 0.03 0.01 0.01 0.00 0.01 0.02 0.04 0.03 0.02 0.02 0.02 0.05 0.06 0.03 0.01 0.01 0.01 0.01 0.02 0.03 0.02 0.03 0.07 0.06 0.08 0.30 0.30 0.25 0.05 0.05
0.00 0.00 0.00 0.00 0.01 0.00 0.00 0.02 0.04 0.05 0.03 0.02 0.01 0.01 0.00 0.00 0.00 0.02 0.03 0.01 0.01 0.06 0.04 0.03 0.05 0.04 0.03 0.02 0.02 0.08 0.07 0.10 0.13 0.10 0.09 0.27 0.16 0.29 0.23 0.07 0.12 0.06
0.00 0.00 0.00 0.00 0.01 0.01 0.02 0.04 0.03 0.01 0.01 0.00 0.01 0.01 0.01 0.01 0.00 0.01 0.02 0.02 0.02 0.04 0.05 0.01 0.03 0.07 0.02 0.01 0.04 0.07 0.09 0.09 0.10 0.08 0.08 0.05 0.05 0.11 0.18 0.16 0.05 0.09

ECMWFNIL_prec_precacc_030.txt.gz
Total_Precipitation_Accumulation
0.00 0.00 0.00 0.00 0.00 0.00 0.00 0.00 0.00 0.00 0.00 0.00 0.00 0.00 0.00 0.00 0.00 0.00 0.00 0.00 0.00 0.00 0.00 0.00 0.00 0.00 0.00 0.01 0.01 0.01 0.00 0.01 0.00 0.01 0.01 0.01 0.01 0.01 0.01 0.00 0.00 0.00
0.00 0.00 0.00 0.00 0.00 0.00 0.00 0.00 0.00 0.00 0.00 0.00 0.00 0.00 0.00 0.00 0.00 0.00 0.00 0.00 0.00 0.00 0.00 0.00 0.00 0.00 0.00 0.01 0.01 0.01 0.01 0.00 0.00 0.00 0.01 0.00 0.01 0.01 0.01 0.00 0.00 0.00
0.00 0.00 0.00 0.00 0.00 0.00 0.00 0.00 0.00 0.00 0.00 0.00 0.00 0.00 0.00 0.00 0.00 0.00 0.00 0.00 0.00 0.00 0.00 0.00 0.00 0.00 0.00 0.00 0.01 0.00 0.00 0.00 0.00 0.00 0.00 0.00 0.01 0.01 0.01 0.01 0.01 0.01
0.00 0.00 0.00 0.00 0.00 0.00 0.00 0.00 0.00 0.00 0.00 0.00 0.00 0.00 0.00 0.00 0.00 0.00 0.00 0.00 0.00 0.00 0.00 0.00 0.00 0.00 0.00 0.00 0.00 0.00 0.00 0.00 0.00 0.00 0.00 0.00 0.01 0.00 0.01 0.01 0.00 0.00
0.00 0.00 0.00 0.00 0.00 0.00 0.00 0.00 0.00 0.00 0.00 0.00 0.00 0.00 0.00 0.00 0.00 0.00 0.00 0.00 0.00 0.00 0.00 0.00 0.00 0.00 0.00 0.00 0.00 0.00 0.00 0.00 0.00 0.00 0.00 0.00 0.00 0.00 0.00 0.00 0.00 0.00
0.00 0.00 0.00 0.00 0.00 0.00 0.00 0.00 0.00 0.00 0.00 0.00 0.00 0.00 0.00 0.00 0.00 0.00 0.00 0.00 0.00 0.00 0.00 0.00 0.00 0.00 0.00 0.00 0.00 0.00 0.00 0.00 0.00 0.00 0.00 0.00 0.00 0.00 0.00 0.00 0.00 0.00
0.00 0.00 0.00 0.00 0.00 0.00 0.00 0.00 0.00 0.00 0.01 0.00 0.01 0.00 0.00 0.00 0.00 0.00 0.00 0.00 0.00 0.00 0.00 0.00 0.00 0.00 0.00 0.00 0.00 0.00 0.00 0.00 0.00 0.00 0.00 0.00 0.00 0.00 0.00 0.00 0.00 0.00
0.00 0.00 0.00 0.00 0.00 0.00 0.01 0.01 0.01 0.00 0.00 0.00 0.00 0.00 0.00 0.00 0.00 0.00 0.00 0.00 0.00 0.00 0.00 0.00 0.00 0.00 0.00 0.00 0.00 0.00 0.00 0.00 0.00 0.00 0.00 0.00 0.00 0.00 0.00 0.00 0.00 0.00
0.00 0.00 0.00 0.00 0.00 0.00 0.01 0.01 0.00 0.01 0.00 0.00 0.00 0.00 0.00 0.00 0.00 0.00 0.00 0.00 0.00 0.00 0.00 0.00 0.01 0.01 0.00 0.00 0.00 0.00 0.00 0.00 0.00 0.00 0.00 0.00 0.00 0.00 0.00 0.00 0.00 0.00
0.00 0.00 0.00 0.00 0.00 0.02 0.03 0.10 0.04 0.01 0.01 0.00 0.00 0.00 0.00 0.00 0.00 0.00 0.00 0.00 0.01 0.02 0.03 0.03 0.02 0.02 0.02 0.00 0.00 0.00 0.00 0.00 0.00 0.00 0.00 0.00 0.00 0.00 0.00 0.00 0.00 0.00
0.07 0.03 0.00 0.01 0.03 0.08 0.05 0.05 0.04 0.05 0.03 0.01 0.00 0.01 0.03 0.06 0.04 0.04 0.08 0.11 0.12 0.09 0.07 0.06 0.04 0.02 0.00 0.00 0.00 0.00 0.00 0.00 0.00 0.00 0.00 0.00 0.00 0.00 0.00 0.00 0.00 0.00
0.03 0.01 0.01 0.02 0.05 0.03 0.06 0.02 0.01 0.00 0.00 0.01 0.02 0.05 0.06 0.07 0.10 0.16 0.19 0.18 0.14 0.11 0.08 0.06 0.02 0.00 0.00 0.00 0.00 0.00 0.00 0.00 0.00 0.00 0.00 0.00 0.00 0.00 0.00 0.00 0.00 0.00
0.04 0.02 0.03 0.05 0.03 0.05 0.16 0.22 0.12 0.01 0.02 0.03 0.04 0.11 0.22 0.20 0.24 0.23 0.20 0.17 0.13 0.10 0.05 0.01 0.00 0.00 0.00 0.00 0.00 0.00 0.00 0.00 0.00 0.00 0.00 0.00 0.00 0.00 0.00 0.00 0.00 0.01
0.00 0.05 0.23 0.15 0.22 0.17 0.21 0.13 0.23 0.14 0.12 0.15 0.29 0.30 0.29 0.31 0.28 0.26 0.22 0.15 0.07 0.02 0.00 0.01 0.00 0.00 0.00 0.00 0.00 0.00 0.00 0.00 0.00 0.00 0.00 0.00 0.01 0.01 0.00 0.00 0.00 0.00
0.00 0.03 0.16 0.38 0.12 0.41 0.32 0.21 0.35 0.30 0.35 0.37 0.26 0.38 0.41 0.33 0.22 0.14 0.07 0.04 0.02 0.01 0.00 0.00 0.00 0.00 0.00 0.00 0.00 0.00 0.00 0.00 0.00 0.00 0.00 0.00 0.01 0.03 0.01 0.01 0.00 0.01
0.00 0.00 0.04 0.16 0.15 1.40 1.81 0.56 0.60 0.69 0.67 0.53 0.36 0.35 0.25 0.16 0.11 0.07 0.05 0.03 0.01 0.01 0.01 0.00 0.00 0.00 0.00 0.00 0.00 0.00 0.00 0.00 0.00 0.00 0.00 0.00 0.00 0.00 0.01 0.00 0.00 0.02
0.00 0.00 0.00 0.00 0.60 0.96 1.15 1.32 0.79 0.37 0.28 0.29 0.25 0.16 0.13 0.13 0.11 0.10 0.07 0.04 0.02 0.01 0.01 0.00 0.00 0.00 0.00 0.00 0.00 0.00 0.00 0.00 0.00 0.00 0.00 0.00 0.01 0.00 0.01 0.00 0.00 0.00
0.00 0.00 0.00 0.06 0.44 1.07 1.09 0.96 0.63 0.19 0.16 0.09 0.08 0.08 0.10 0.10 0.12 0.12 0.09 0.06 0.04 0.02 0.01 0.00 0.00 0.00 0.00 0.00 0.00 0.00 0.00 0.00 0.00 0.00 0.00 0.00 0.00 0.00 0.00 0.01 0.01 0.04
0.00 0.00 0.00 0.19 0.98 1.22 0.79 1.08 0.38 0.43 0.27 0.13 0.10 0.19 0.05 0.09 0.13 0.14 0.12 0.09 0.06 0.03 0.01 0.01 0.01 0.00 0.00 0.00 0.00 0.00 0.00 0.00 0.00 0.00 0.00 0.00 0.00 0.00 0.00 0.01 0.06 0.08
0.00 0.00 0.02 0.97 1.21 1.60 0.99 0.11 0.15 0.07 0.22 0.37 0.26 0.12 0.18 0.13 0.14 0.15 0.13 0.11 0.08 0.06 0.05 0.03 0.02 0.01 0.01 0.00 0.00 0.01 0.01 0.01 0.01 0.01 0.00 0.01 0.01 0.02 0.01 0.00 0.02 0.05
0.00 0.00 0.31 0.77 1.12 0.96 0.38 0.22 0.02 0.14 0.17 0.32 0.17 0.09 0.12 0.06 0.06 0.06 0.06 0.06 0.05 0.05 0.05 0.05 0.04 0.02 0.01 0.01 0.00 0.00 0.00 0.00 0.00 0.01 0.02 0.02 0.02 0.02 0.02 0.02 0.14 0.47
0.01 0.01 0.03 0.77 0.55 0.23 0.11 0.02 0.05 0.19 0.13 0.12 0.12 0.11 0.05 0.03 0.04 0.04 0.08 0.21 0.15 0.15 0.12 0.08 0.05 0.03 0.01 0.01 0.01 0.02 0.01 0.01 0.02 0.01 0.02 0.01 0.02 0.01 0.02 0.07 0.12 0.37
0.00 0.01 0.07 0.01 0.00 0.04 0.01 0.00 0.02 0.10 0.03 0.05 0.05 0.03 0.01 0.01 0.02 0.04 0.03 0.09 0.08 0.03 0.03 0.03 0.05 0.05 0.05 0.04 0.04 0.02 0.02 0.02 0.01 0.01 0.04 0.03 0.05 0.08 0.04 0.12 0.24 0.20
0.00 0.00 0.00 0.01 0.00 0.00 0.00 0.01 0.01 0.03 0.04 0.04 0.03 0.01 0.01 0.00 0.01 0.02 0.04 0.03 0.02 0.02 0.02 0.05 0.06 0.03 0.01 0.01 0.01 0.01 0.02 0.03 0.02 0.03 0.07 0.06 0.08 0.30 0.30 0.25 0.05 0.05
0.00 0.00 0.00 0.00 0.01 0.00 0.00 0.02 0.04 0.05 0.03 0.02 0.01 0.01 0.00 0.00 0.00 0.02 0.03 0.01 0.01 0.06 0.04 0.03 0.05 0.04 0.03 0.02 0.02 0.08 0.07 0.10 0.13 0.10 0.09 0.27 0.16 0.29 0.23 0.07 0.12 0.06
0.00 0.00 0.00 0.00 0.01 0.01 0.02 0.04 0.03 0.01 0.01 0.00 0.01 0.01 0.01 0.01 0.00 0.01 0.02 0.02 0.02 0.04 0.05 0.01 0.03 0.07 0.02 0.01 0.04 0.07 0.09 0.09 0.10 0.08 0.09 0.05 0.05 0.11 0.18 0.16 0.05 0.09

ECMWFNIL_prec_precacc_033.txt.gz
Total_Precipitation_Accumulation
0.00 0.00 0.00 0.00 0.00 0.00 0.00 0.00 0.00 0.00 0.00 0.00 0.00 0.00 0.00 0.00 0.00 0.00 0.00 0.00 0.00 0.00 0.00 0.00 0.00 0.00 0.01 0.01 0.01 0.01 0.01 0.01 0.00 0.01 0.01 0.01 0.01 0.01 0.01 0.00 0.00 0.00
0.00 0.00 0.00 0.00 0.00 0.00 0.00 0.00 0.00 0.00 0.00 0.00 0.00 0.00 0.00 0.00 0.00 0.00 0.00 0.00 0.00 0.00 0.00 0.00 0.00 0.00 0.00 0.01 0.01 0.01 0.01 0.01 0.01 0.00 0.01 0.00 0.01 0.01 0.01 0.00 0.00 0.00
0.00 0.00 0.00 0.00 0.00 0.00 0.00 0.00 0.00 0.00 0.00 0.00 0.00 0.00 0.00 0.00 0.00 0.00 0.00 0.00 0.00 0.00 0.00 0.00 0.00 0.00 0.00 0.00 0.01 0.01 0.00 0.01 0.00 0.00 0.00 0.00 0.01 0.01 0.01 0.01 0.01 0.01
0.00 0.00 0.00 0.00 0.00 0.00 0.00 0.00 0.00 0.00 0.00 0.00 0.00 0.00 0.00 0.00 0.00 0.00 0.00 0.00 0.00 0.00 0.00 0.00 0.00 0.00 0.00 0.00 0.00 0.00 0.00 0.00 0.00 0.00 0.00 0.00 0.01 0.00 0.01 0.01 0.00 0.00
0.00 0.00 0.00 0.00 0.00 0.00 0.00 0.00 0.00 0.00 0.00 0.00 0.00 0.00 0.00 0.00 0.00 0.00 0.00 0.00 0.00 0.00 0.00 0.00 0.00 0.00 0.00 0.00 0.00 0.00 0.00 0.00 0.00 0.00 0.00 0.00 0.00 0.00 0.00 0.00 0.00 0.00
0.00 0.00 0.00 0.00 0.00 0.00 0.00 0.00 0.00 0.00 0.00 0.00 0.00 0.00 0.00 0.00 0.00 0.00 0.00 0.00 0.00 0.00 0.00 0.00 0.00 0.00 0.00 0.00 0.00 0.00 0.00 0.00 0.00 0.00 0.00 0.00 0.00 0.00 0.00 0.00 0.00 0.00
0.00 0.00 0.00 0.00 0.00 0.00 0.00 0.00 0.00 0.00 0.01 0.00 0.01 0.00 0.00 0.00 0.00 0.00 0.00 0.00 0.00 0.00 0.00 0.00 0.00 0.00 0.00 0.00 0.00 0.00 0.00 0.00 0.00 0.00 0.00 0.00 0.00 0.00 0.00 0.00 0.00 0.00
0.00 0.00 0.00 0.00 0.00 0.00 0.01 0.01 0.01 0.00 0.00 0.00 0.00 0.00 0.00 0.00 0.00 0.00 0.00 0.00 0.00 0.00 0.00 0.00 0.00 0.00 0.00 0.00 0.00 0.00 0.00 0.00 0.00 0.00 0.00 0.00 0.00 0.00 0.00 0.00 0.00 0.00
0.00 0.00 0.00 0.00 0.00 0.00 0.01 0.01 0.00 0.01 0.00 0.00 0.00 0.00 0.00 0.00 0.00 0.00 0.00 0.00 0.00 0.00 0.00 0.00 0.01 0.01 0.00 0.00 0.00 0.00 0.00 0.00 0.00 0.00 0.00 0.00 0.00 0.00 0.00 0.00 0.00 0.00
0.00 0.00 0.00 0.00 0.00 0.02 0.03 0.10 0.04 0.01 0.01 0.00 0.00 0.00 0.00 0.00 0.00 0.00 0.00 0.00 0.01 0.02 0.03 0.03 0.02 0.02 0.02 0.00 0.00 0.00 0.00 0.00 0.00 0.00 0.00 0.00 0.00 0.00 0.00 0.00 0.00 0.00
0.07 0.03 0.00 0.01 0.03 0.08 0.05 0.05 0.04 0.05 0.03 0.01 0.00 0.01 0.03 0.06 0.04 0.04 0.08 0.11 0.12 0.09 0.07 0.06 0.04 0.02 0.00 0.00 0.00 0.00 0.00 0.00 0.00 0.00 0.00 0.00 0.00 0.00 0.00 0.00 0.00 0.00
0.03 0.01 0.01 0.02 0.05 0.03 0.06 0.02 0.01 0.00 0.00 0.01 0.02 0.05 0.06 0.07 0.10 0.16 0.19 0.18 0.14 0.11 0.08 0.06 0.02 0.00 0.00 0.00 0.00 0.00 0.00 0.00 0.00 0.00 0.00 0.00 0.00 0.00 0.00 0.00 0.00 0.00
0.04 0.02 0.03 0.05 0.03 0.05 0.16 0.22 0.12 0.01 0.02 0.03 0.04 0.11 0.22 0.20 0.24 0.23 0.20 0.17 0.13 0.10 0.05 0.01 0.00 0.00 0.00 0.00 0.00 0.00 0.00 0.00 0.00 0.00 0.00 0.00 0.00 0.00 0.00 0.00 0.00 0.01
0.00 0.05 0.23 0.15 0.22 0.17 0.21 0.13 0.23 0.14 0.12 0.15 0.29 0.30 0.29 0.31 0.28 0.26 0.22 0.15 0.07 0.02 0.00 0.01 0.00 0.00 0.00 0.00 0.00 0.00 0.00 0.00 0.00 0.00 0.00 0.00 0.01 0.01 0.00 0.00 0.00 0.00
0.00 0.03 0.16 0.38 0.12 0.41 0.32 0.21 0.35 0.30 0.35 0.37 0.26 0.38 0.41 0.33 0.22 0.14 0.07 0.04 0.02 0.01 0.00 0.00 0.00 0.00 0.00 0.00 0.00 0.00 0.00 0.00 0.00 0.00 0.00 0.00 0.01 0.03 0.01 0.01 0.00 0.01
0.00 0.00 0.04 0.16 0.15 1.40 1.81 0.56 0.60 0.69 0.67 0.53 0.36 0.35 0.25 0.16 0.11 0.07 0.05 0.03 0.01 0.01 0.01 0.00 0.00 0.00 0.00 0.00 0.00 0.00 0.00 0.00 0.00 0.00 0.00 0.00 0.00 0.00 0.01 0.00 0.00 0.02
0.00 0.00 0.00 0.00 0.60 0.96 1.15 1.32 0.79 0.37 0.28 0.29 0.25 0.16 0.13 0.13 0.11 0.10 0.07 0.04 0.02 0.01 0.01 0.00 0.00 0.00 0.00 0.00 0.00 0.00 0.00 0.00 0.00 0.00 0.00 0.00 0.01 0.00 0.01 0.00 0.00 0.00
0.00 0.00 0.00 0.06 0.44 1.07 1.09 0.96 0.63 0.19 0.16 0.09 0.08 0.08 0.10 0.10 0.12 0.12 0.09 0.06 0.04 0.02 0.01 0.00 0.00 0.00 0.00 0.00 0.00 0.00 0.00 0.00 0.00 0.00 0.00 0.00 0.00 0.00 0.00 0.01 0.01 0.04
0.00 0.00 0.00 0.19 0.98 1.22 0.79 1.08 0.38 0.43 0.27 0.13 0.10 0.19 0.05 0.09 0.13 0.14 0.12 0.09 0.06 0.03 0.01 0.01 0.01 0.00 0.00 0.00 0.00 0.00 0.00 0.00 0.00 0.00 0.00 0.00 0.00 0.00 0.00 0.01 0.06 0.08
0.00 0.00 0.02 0.97 1.21 1.60 0.99 0.11 0.15 0.07 0.22 0.37 0.26 0.12 0.18 0.13 0.14 0.15 0.13 0.11 0.08 0.06 0.05 0.03 0.02 0.01 0.01 0.00 0.00 0.01 0.01 0.01 0.01 0.01 0.00 0.01 0.01 0.02 0.01 0.00 0.02 0.05
0.00 0.00 0.31 0.77 1.12 0.96 0.38 0.22 0.02 0.14 0.17 0.32 0.17 0.09 0.12 0.06 0.06 0.06 0.06 0.06 0.05 0.05 0.05 0.05 0.04 0.02 0.01 0.01 0.00 0.00 0.00 0.00 0.00 0.01 0.02 0.02 0.02 0.02 0.02 0.02 0.14 0.47
0.01 0.01 0.03 0.77 0.55 0.23 0.11 0.02 0.05 0.19 0.13 0.12 0.12 0.11 0.05 0.03 0.04 0.04 0.08 0.21 0.15 0.15 0.12 0.08 0.05 0.03 0.01 0.01 0.01 0.02 0.01 0.01 0.02 0.01 0.02 0.01 0.02 0.01 0.02 0.07 0.12 0.37
0.00 0.01 0.07 0.01 0.00 0.04 0.01 0.00 0.02 0.10 0.03 0.05 0.05 0.03 0.01 0.01 0.02 0.04 0.03 0.09 0.08 0.03 0.03 0.03 0.05 0.05 0.05 0.04 0.04 0.02 0.02 0.02 0.01 0.01 0.04 0.03 0.05 0.08 0.04 0.12 0.24 0.20
0.00 0.00 0.00 0.01 0.00 0.00 0.00 0.01 0.01 0.03 0.04 0.04 0.03 0.01 0.01 0.00 0.01 0.02 0.04 0.03 0.02 0.02 0.02 0.05 0.06 0.03 0.01 0.01 0.01 0.01 0.02 0.03 0.02 0.03 0.07 0.06 0.08 0.30 0.30 0.25 0.05 0.05
0.00 0.00 0.00 0.00 0.01 0.00 0.00 0.02 0.04 0.05 0.03 0.02 0.01 0.01 0.00 0.00 0.00 0.02 0.03 0.01 0.01 0.06 0.04 0.03 0.05 0.04 0.03 0.02 0.02 0.08 0.07 0.10 0.13 0.10 0.09 0.27 0.16 0.29 0.23 0.07 0.12 0.06
0.00 0.00 0.00 0.00 0.01 0.01 0.02 0.04 0.03 0.01 0.01 0.00 0.01 0.01 0.01 0.01 0.00 0.01 0.02 0.02 0.02 0.04 0.05 0.01 0.03 0.07 0.02 0.01 0.04 0.07 0.09 0.09 0.10 0.08 0.09 0.05 0.05 0.11 0.18 0.16 0.05 0.09